FW6030 Weather Reports


time (UTC)temp
C
wind
direction
speed
KPH
gust
KPH
rain 1hr
cm
rain 24hr
cm
rain mn
cm
humidity
%
barometer
mb
20260509225032 31 360 9.7 19.3 0.00 0.03 0.03 49 1009.2
20260509224953 31 360 9.7 19.3 0.00 0.03 0.03 48 1009.2
20260509224852 31 360 8.0 19.3 0.00 0.03 0.03 48 1009.3
20260509224733 31 360 9.7 19.3 0.00 0.03 0.03 47 1009.2
20260509224633 31 360 9.7 19.3 0.00 0.03 0.03 47 1009.2
20260509224535 31 360 9.7 19.3 0.00 0.03 0.03 47 1009.2
20260509224435 31 360 9.7 19.3 0.00 0.03 0.03 47 1009.2
20260509224322 31 360 9.7 19.3 0.00 0.03 0.03 46 1009.3
20260509224222 31 360 11.3 19.3 0.00 0.03 0.03 46 1009.2
20260509224122 31 360 9.7 19.3 0.00 0.03 0.03 47 1009.4
20260509224043 31 360 8.0 20.9 0.00 0.03 0.03 47 1009.2
20260509223923 31 115 8.0 20.9 0.00 0.03 0.03 47 1009.2
20260509223823 31 360 8.0 20.9 0.00 0.03 0.03 47 1009.3
20260509223724 31 360 8.0 20.9 0.00 0.03 0.03 47 1009.3
20260509223628 31 360 8.0 20.9 0.00 0.03 0.03 47 1009.3
20260509223528 31 360 9.7 20.9 0.00 0.03 0.03 48 1009.3
20260509223430 31 360 9.7 17.7 0.00 0.03 0.03 47 1009.3
20260509223331 31 360 9.7 17.7 0.00 0.03 0.03 47 1009.3
20260509223252 31 360 11.3 17.7 0.00 0.03 0.03 47 1009.2
20260509223152 31 360 9.7 17.7 0.00 0.03 0.03 48 1009.2
20260509223030 31 360 9.7 17.7 0.00 0.03 0.03 48 1009.2
20260509222951 31 360 9.7 17.7 0.00 0.03 0.03 48 1009.2
20260509222834 31 360 9.7 17.7 0.00 0.03 0.03 48 1009.2
20260509222736 31 360 8.0 17.7 0.00 0.03 0.03 48 1009.2
20260509222616 31 360 8.0 16.1 0.00 0.03 0.03 49 1009.1
20260509222517 31 360 9.7 16.1 0.00 0.03 0.03 50 1009.1
20260509222418 31 360 9.7 16.1 0.00 0.03 0.03 51 1009.1
20260509222338 31 360 8.0 16.1 0.00 0.03 0.03 51 1009.1
20260509222218 31 360 8.0 16.1 0.00 0.03 0.03 51 1009.1
20260509222122 31 360 8.0 16.1 0.00 0.03 0.03 51 1009.2
20260509222023 31 360 9.7 16.1 0.00 0.03 0.03 51 1009.0
20260509221923 31 360 8.0 16.1 0.00 0.03 0.03 51 1009.2
20260509221824 31 360 6.4 16.1 0.00 0.03 0.03 52 1009.1
20260509221725 31 360 6.4 16.1 0.00 0.03 0.03 52 1009.1
20260509221625 31 360 8.0 16.1 0.00 0.03 0.03 52 1009.1
20260509221529 30 360 8.0 16.1 0.00 0.03 0.03 52 1009.1
20260509221431 30 360 8.0 14.5 0.00 0.03 0.03 52 1009.1
20260509221332 30 360 8.0 14.5 0.00 0.03 0.03 52 1009.1
20260509221232 30 360 8.0 14.5 0.00 0.03 0.03 52 1009.1
20260509221154 30 360 8.0 14.5 0.00 0.03 0.03 53 1009.1
20260509221034 30 360 8.0 14.5 0.00 0.03 0.03 52 1009.1
20260509220955 30 360 8.0 14.5 0.00 0.03 0.03 52 1009.1
20260509220854 30 360 8.0 14.5 0.00 0.03 0.03 52 1009.0
20260509220718 31 360 6.4 12.9 0.00 0.03 0.03 53 1009.0
20260509220619 31 360 6.4 9.7 0.00 0.03 0.03 53 1009.0
20260509220519 31 360 6.4 9.7 0.00 0.03 0.03 53 1009.0
20260509220420 31 360 6.4 9.7 0.00 0.03 0.03 53 1009.0
20260509220322 31 360 4.8 9.7 0.00 0.03 0.03 53 1009.0
20260509220221 31 360 4.8 9.7 0.00 0.03 0.03 53 1009.1
20260509220126 31 69 4.8 9.7 0.00 0.03 0.03 53 1009.1
20260509220024 31 71 3.2 9.7 0.00 0.03 0.03 53 1009.2
20260509215925 31 360 3.2 9.7 0.00 0.03 0.03 53 1009.1
20260509215826 31 360 3.2 12.9 0.00 0.03 0.03 53 1009.1
20260509215746 31 360 3.2 12.9 0.00 0.03 0.03 53 1009.1
20260509215626 31 360 3.2 12.9 0.00 0.03 0.03 53 1009.2
20260509215526 31 360 3.2 12.9 0.00 0.03 0.03 53 1009.1
20260509215430 31 360 3.2 12.9 0.00 0.03 0.03 53 1009.1
20260509215351 31 360 3.2 12.9 0.00 0.03 0.03 53 1009.1
20260509215231 31 360 4.8 12.9 0.00 0.03 0.03 54 1009.2
20260509215151 31 360 4.8 12.9 0.00 0.03 0.03 54 1009.1
20260509215030 31 360 4.8 12.9 0.00 0.03 0.03 54 1009.2
20260509214931 30 360 3.2 16.1 0.00 0.03 0.03 54 1009.2
20260509214831 30 360 3.2 16.1 0.00 0.03 0.03 54 1009.2
20260509214732 30 360 3.2 16.1 0.00 0.03 0.03 54 1009.2
20260509214635 30 360 3.2 16.1 0.00 0.03 0.03 54 1009.2
20260509214535 30 360 3.2 16.1 0.00 0.03 0.03 54 1009.2
20260509214416 30 360 3.2 16.1 0.00 0.03 0.03 54 1009.3
20260509214317 30 360 4.8 16.1 0.00 0.03 0.03 55 1009.3
20260509214217 30 360 6.4 20.9 0.00 0.03 0.03 55 1009.2
20260509214117 30 360 6.4 20.9 0.00 0.03 0.03 55 1009.3
20260509214040 30 360 6.4 20.9 0.00 0.03 0.03 55 1009.3
20260509213922 30 360 6.4 20.9 0.00 0.03 0.03 55 1009.4
20260509213823 30 360 6.4 20.9 0.00 0.03 0.03 55 1009.3
20260509213744 30 360 8.0 20.9 0.00 0.03 0.03 55 1009.3
20260509213623 30 360 8.0 20.9 0.00 0.03 0.03 55 1009.3
20260509213523 30 360 8.0 20.9 0.00 0.03 0.03 55 1009.4
20260509213425 30 360 9.7 20.9 0.00 0.03 0.03 55 1009.4
20260509213344 29 360 9.7 20.9 0.00 0.03 0.03 54 1009.5
20260509213229 29 360 11.3 20.9 0.00 0.03 0.03 54 1009.5
20260509213130 29 360 11.3 24.1 0.00 0.03 0.03 52 1009.5
20260509213031 29 360 11.3 24.1 0.00 0.03 0.03 52 1009.4
20260509212932 29 360 9.7 24.1 0.00 0.03 0.03 52 1009.4
20260509212832 29 360 11.3 24.1 0.00 0.03 0.03 52 1009.5
20260509212734 29 360 11.3 24.1 0.00 0.03 0.03 52 1009.6
20260509212619 29 360 11.3 24.1 0.00 0.03 0.03 52 1009.6
20260509212519 29 360 12.9 24.1 0.00 0.03 0.03 53 1009.7
20260509212419 28 360 14.5 25.7 0.00 0.03 0.03 52 1009.7
20260509212320 28 360 12.9 25.7 0.00 0.03 0.03 52 1009.7
20260509212220 28 360 12.9 25.7 0.00 0.03 0.03 52 1009.8
20260509212119 28 360 12.9 32.2 0.00 0.03 0.03 53 1009.7
20260509212020 28 360 11.3 32.2 0.00 0.03 0.03 53 1009.8
20260509211940 28 360 12.9 32.2 0.00 0.03 0.03 54 1009.7
20260509211844 28 360 14.5 32.2 0.00 0.03 0.03 53 1009.8
20260509211723 28 360 14.5 32.2 0.00 0.03 0.03 53 1009.8
20260509211624 27 360 14.5 32.2 0.00 0.03 0.03 54 1009.8
20260509211525 27 360 12.9 32.2 0.00 0.03 0.03 54 1009.8
20260509211446 27 360 11.3 32.2 0.00 0.03 0.03 54 1009.8
20260509211324 27 360 12.9 35.4 0.00 0.03 0.03 54 1009.9
20260509211225 27 360 16.1 35.4 0.00 0.03 0.03 55 1009.9
20260509211145 27 360 17.7 35.4 0.00 0.03 0.03 55 1009.9
20260509211029 27 360 20.9 35.4 0.00 0.03 0.03 55 1009.9
20260509210929 27 360 22.5 35.4 0.00 0.03 0.03 55 1009.9
20260509210830 27 360 20.9 35.4 0.00 0.03 0.03 54 1010.0
20260509210732 27 360 19.3 35.4 0.00 0.03 0.03 55 1010.0
20260509210632 27 360 19.3 35.4 0.00 0.03 0.03 55 1010.1
20260509210533 28 360 19.3 32.2 0.00 0.03 0.03 56 1010.1
20260509210418 28 360 17.7 32.2 0.00 0.03 0.03 55 1010.0
20260509210338 28 360 17.7 32.2 0.00 0.03 0.03 55 1009.9
20260509210237 28 360 17.7 32.2 0.00 0.03 0.03 55 1009.9
20260509210158 28 360 17.7 32.2 0.00 0.03 0.03 56 1010.0
20260509210058 28 360 17.7 32.2 0.00 0.03 0.03 57 1009.9
20260509205957 28 360 17.7 32.2 0.00 0.03 0.03 57 1009.9
20260509205818 28 360 17.7 37.0 0.00 0.03 0.03 56 1010.0
20260509205717 28 360 16.1 37.0 0.00 0.03 0.03 55 1010.0
20260509205621 28 360 14.5 37.0 0.00 0.03 0.03 55 1010.0
20260509205522 28 360 14.5 37.0 0.00 0.03 0.03 55 1010.0
20260509205422 28 360 11.3 37.0 0.00 0.03 0.03 55 1010.0
20260509205323 28 360 12.9 37.0 0.00 0.03 0.03 55 1010.0
20260509205223 28 360 16.1 37.0 0.00 0.03 0.03 55 1009.9
20260509205124 28 360 17.7 37.0 0.00 0.03 0.03 55 1010.0
20260509205025 28 360 19.3 37.0 0.00 0.03 0.03 55 1010.1
20260509204929 28 360 17.7 37.0 0.00 0.03 0.03 54 1010.1
20260509204829 28 360 17.7 37.0 0.00 0.03 0.03 53 1010.1
20260509204730 29 360 12.9 37.0 0.00 0.03 0.03 56 1010.1
20260509204630 29 360 9.7 32.2 0.00 0.03 0.03 60 1010.1
20260509204530 29 360 8.0 32.2 0.00 0.03 0.03 60 1010.1
20260509204430 29 360 8.0 32.2 0.00 0.03 0.03 60 1010.1
20260509204351 28 360 9.7 32.2 0.00 0.03 0.03 61 1010.1
20260509204250 28 360 11.3 32.2 0.00 0.03 0.03 61 1010.1
20260509204134 28 360 12.9 32.2 0.00 0.03 0.03 61 1010.2
20260509204054 28 360 14.5 32.2 0.00 0.03 0.03 61 1010.2
20260509203933 28 360 14.5 32.2 0.00 0.03 0.03 61 1010.2
20260509203831 28 360 17.7 32.2 0.00 0.03 0.03 61 1010.2
20260509203731 28 360 19.3 32.2 0.00 0.03 0.03 62 1010.3
20260509203632 28 360 17.7 32.2 0.00 0.03 0.03 62 1010.3
20260509203516 28 360 16.1 29.0 0.00 0.03 0.03 64 1010.2
20260509203418 28 360 12.9 22.5 0.00 0.03 0.03 66 1010.2
20260509203318 28 360 9.7 22.5 0.00 0.03 0.03 66 1010.3
20260509203219 28 360 9.7 22.5 0.00 0.03 0.03 66 1010.3
20260509203119 28 360 9.7 19.3 0.00 0.03 0.03 66 1010.3
20260509203020 28 360 9.7 19.3 0.00 0.03 0.03 66 1010.2
20260509202919 28 360 9.7 19.3 0.00 0.03 0.03 65 1010.3
20260509202824 28 360 9.7 19.3 0.00 0.03 0.03 66 1010.3
20260509202723 28 360 11.3 19.3 0.00 0.03 0.03 65 1010.3
20260509202621 28 360 12.9 20.9 0.00 0.03 0.03 65 1010.3
20260509202521 29 360 11.3 25.7 0.00 0.03 0.03 65 1010.3
20260509202421 29 360 11.3 25.7 0.00 0.03 0.03 65 1010.4
20260509202322 29 360 11.3 25.7 0.00 0.03 0.03 65 1010.3
20260509202223 29 360 11.3 25.7 0.00 0.03 0.03 65 1010.3
20260509202128 29 360 11.3 25.7 0.00 0.03 0.03 65 1010.3
20260509202049 29 360 12.9 25.7 0.00 0.03 0.03 63 1010.3
20260509201928 30 360 14.5 25.7 0.00 0.03 0.03 63 1010.3
20260509201828 30 360 16.1 25.7 0.00 0.03 0.03 61 1010.3
20260509201729 30 360 14.5 25.7 0.00 0.03 0.03 61 1010.2
20260509201629 31 360 12.9 25.7 0.00 0.03 0.03 60 1010.3
20260509201529 31 360 11.3 24.1 0.00 0.03 0.03 59 1010.3
20260509201434 32 360 9.7 19.3 0.00 0.03 0.03 55 1010.3
20260509201336 32 360 9.7 19.3 0.00 0.03 0.03 55 1010.3
20260509201216 32 360 9.7 19.3 0.00 0.03 0.03 55 1010.3
20260509201137 32 360 9.7 19.3 0.00 0.03 0.03 55 1010.3
20260509201058 32 360 9.7 19.3 0.00 0.03 0.03 55 1010.3
20260509200957 32 17 9.7 19.3 0.00 0.03 0.03 55 1010.3
20260509200816 32 360 8.0 17.7 0.00 0.03 0.03 55 1010.3
20260509200721 32 344 8.0 17.7 0.00 0.03 0.03 55 1010.4
20260509200622 32 360 6.4 12.9 0.00 0.03 0.03 55 1010.4
20260509200523 32 360 6.4 12.9 0.00 0.03 0.03 54 1010.3
20260509200424 32 360 6.4 12.9 0.00 0.03 0.03 54 1010.4
20260509200344 32 360 4.8 12.9 0.00 0.03 0.03 54 1010.4
20260509200224 32 360 4.8 9.7 0.00 0.03 0.03 54 1010.3
20260509200123 32 360 4.8 8.0 0.00 0.03 0.03 53 1010.3
20260509200028 32 360 3.2 8.0 0.00 0.03 0.03 53 1010.3
20260509195928 32 360 3.2 6.4 0.00 0.03 0.03 53 1010.4
20260509195828 32 360 3.2 6.4 0.00 0.03 0.03 53 1010.4
20260509195730 32 360 3.2 6.4 0.00 0.03 0.03 53 1010.4
20260509195628 33 360 1.6 8.0 0.00 0.03 0.03 51 1010.4
20260509195528 33 360 3.2 8.0 0.00 0.03 0.03 51 1010.4
20260509195428 33 360 3.2 8.0 0.00 0.03 0.03 51 1010.4
20260509195333 33 360 3.2 8.0 0.00 0.03 0.03 52 1010.5
20260509195233 33 360 1.6 8.0 0.00 0.03 0.03 52 1010.4
20260509195134 33 360 1.6 8.0 0.00 0.03 0.03 52 1010.5
20260509195034 33 360 1.6 8.0 0.00 0.03 0.03 51 1010.4
20260509194954 33 360 1.6 8.0 0.00 0.03 0.03 52 1010.5
20260509194834 33 360 3.2 12.9 0.00 0.03 0.03 51 1010.4
20260509194719 33 360 3.2 12.9 0.00 0.03 0.03 53 1010.4
20260509194620 33 360 4.8 12.9 0.00 0.03 0.03 53 1010.4
20260509194521 33 360 4.8 12.9 0.00 0.03 0.03 52 1010.4
20260509194420 33 360 6.4 12.9 0.00 0.03 0.03 52 1010.4
20260509194341 33 360 6.4 12.9 0.00 0.03 0.03 52 1010.5
20260509194221 33 360 4.8 12.9 0.00 0.03 0.03 52 1010.4
20260509194122 33 360 4.8 12.9 0.00 0.03 0.03 52 1010.5
20260509194025 33 360 4.8 12.9 0.00 0.03 0.03 53 1010.4
20260509193927 33 360 3.2 12.9 0.00 0.03 0.03 53 1010.4
20260509193846 33 360 3.2 9.7 0.00 0.03 0.03 53 1010.5
20260509193746 33 360 4.8 9.7 0.00 0.03 0.03 53 1010.5
20260509193626 33 360 4.8 9.7 0.00 0.03 0.03 53 1010.5
20260509193525 33 360 3.2 9.7 0.00 0.03 0.03 53 1010.4
20260509193428 33 360 3.2 9.7 0.00 0.03 0.03 53 1010.4
20260509193327 33 360 3.2 9.7 0.00 0.03 0.03 53 1010.4
20260509193253 33 360 3.2 14.5 0.00 0.03 0.03 53 1010.4
20260509193132 33 360 3.2 14.5 0.00 0.03 0.03 53 1010.4
20260509193033 33 360 3.2 14.5 0.00 0.03 0.03 53 1010.5
20260509192934 33 360 4.8 14.5 0.00 0.03 0.03 53 1010.4
20260509192835 33 360 4.8 14.5 0.00 0.03 0.03 53 1010.5
20260509192737 33 360 4.8 14.5 0.00 0.03 0.03 53 1010.5
20260509192620 33 360 6.4 14.5 0.00 0.03 0.03 53 1010.6
20260509192520 32 360 6.4 14.5 0.00 0.03 0.03 53 1010.6
20260509192422 32 360 6.4 14.5 0.00 0.03 0.03 55 1010.6
20260509192322 32 360 4.8 12.9 0.00 0.03 0.03 54 1010.6
20260509192223 32 360 4.8 12.9 0.00 0.03 0.03 50 1010.6
20260509192144 33 360 4.8 12.9 0.00 0.03 0.03 50 1010.6
20260509192023 33 360 4.8 12.9 0.00 0.03 0.03 50 1010.7
20260509191946 33 360 4.8 12.9 0.00 0.03 0.03 50 1010.6
20260509191830 33 360 4.8 12.9 0.00 0.03 0.03 50 1010.6
20260509191750 33 360 3.2 12.9 0.00 0.03 0.03 50 1010.6
20260509191630 34 360 3.2 12.9 0.00 0.03 0.03 51 1010.6
20260509191531 34 360 3.2 12.9 0.00 0.03 0.03 51 1010.7
20260509191451 34 360 3.2 12.9 0.00 0.03 0.03 51 1010.7
20260509191331 34 360 3.2 12.9 0.00 0.03 0.03 51 1010.7
20260509191251 34 360 4.8 12.9 0.00 0.03 0.03 51 1010.6
20260509191130 34 360 4.8 12.9 0.00 0.03 0.03 51 1010.6
20260509191051 34 360 3.2 12.9 0.00 0.03 0.03 53 1010.7
20260509190934 34 360 4.8 12.9 0.00 0.03 0.03 53 1010.7
20260509190834 34 360 4.8 12.9 0.00 0.03 0.03 53 1010.7
20260509190755 33 360 4.8 12.9 0.00 0.03 0.03 53 1010.7
20260509190634 33 360 4.8 12.9 0.00 0.03 0.03 53 1010.7
20260509190535 33 360 4.8 12.9 0.00 0.03 0.03 54 1010.8
20260509190435 33 360 4.8 12.9 0.00 0.03 0.03 53 1010.7
20260509190320 33 360 4.8 12.9 0.00 0.03 0.03 53 1010.8
20260509190220 33 360 4.8 12.9 0.00 0.03 0.03 53 1010.8
20260509190120 33 360 4.8 12.9 0.00 0.03 0.03 52 1010.8
20260509190020 33 360 4.8 12.9 0.00 0.03 0.03 52 1010.8
20260509185941 33 360 3.2 12.9 0.00 0.03 0.03 52 1010.9
20260509185709 33 360 3.2 9.7 0.00 0.03 0.03 54 1010.9
20260509185511 33 360 3.2 9.7 0.00 0.03 0.03 54 1010.9
20260509185217 33 360 3.2 9.7 0.00 0.03 0.03 54 1010.9
20260509185117 33 360 3.2 9.7 0.00 0.03 0.03 54 1010.9
20260509185017 33 360 3.2 9.7 0.00 0.03 0.03 54 1011.0
20260509184918 33 360 3.2 9.7 0.00 0.03 0.03 54 1011.0
20260509184819 33 360 3.2 16.1 0.00 0.03 0.03 54 1011.0
20260509184739 33 360 3.2 16.1 0.00 0.03 0.03 54 1011.0
20260509184618 33 360 4.8 16.1 0.00 0.03 0.03 55 1011.1
20260509184523 33 360 4.8 16.1 0.00 0.03 0.03 55 1011.0
20260509184443 33 360 4.8 16.1 0.00 0.03 0.03 56 1011.1
20260509184322 33 360 4.8 16.1 0.00 0.03 0.03 56 1011.2
20260509184223 32 360 4.8 16.1 0.00 0.03 0.03 56 1011.2
20260509184144 32 360 4.8 16.1 0.00 0.03 0.03 56 1011.2
20260509184023 32 360 4.8 16.1 0.00 0.03 0.03 57 1011.2
20260509183923 32 360 4.8 16.1 0.00 0.03 0.03 57 1011.3
20260509183828 32 360 6.4 16.1 0.00 0.03 0.03 56 1011.3
20260509183728 32 360 6.4 16.1 0.00 0.03 0.03 57 1011.3
20260509183630 32 360 6.4 16.1 0.00 0.03 0.03 57 1011.2
20260509183550 32 360 6.4 16.1 0.00 0.03 0.03 57 1011.2
20260509183429 32 360 4.8 12.9 0.00 0.03 0.03 58 1011.3
20260509183330 32 360 3.2 12.9 0.00 0.03 0.03 58 1011.3
20260509183252 32 360 4.8 14.5 0.00 0.03 0.03 58 1011.3
20260509183152 31 360 4.8 14.5 0.00 0.03 0.03 58 1011.3
20260509183035 31 360 4.8 14.5 0.00 0.03 0.03 58 1011.3
20260509182916 31 360 4.8 14.5 0.00 0.03 0.03 58 1011.2
20260509182816 31 360 6.4 14.5 0.00 0.03 0.03 58 1011.3
20260509182737 31 360 6.4 14.5 0.00 0.03 0.03 58 1011.3
20260509182636 31 360 6.4 14.5 0.00 0.03 0.03 59 1011.3
20260509182516 31 360 6.4 14.5 0.00 0.03 0.03 59 1011.4
20260509182417 31 360 6.4 14.5 0.00 0.03 0.03 58 1011.4
20260509182321 31 360 4.8 9.7 0.00 0.03 0.03 58 1011.4
20260509182243 32 360 4.8 9.7 0.00 0.03 0.03 59 1011.5
20260509182143 32 360 4.8 9.7 0.00 0.03 0.03 58 1011.4
20260509182022 32 360 3.2 8.0 0.00 0.03 0.03 58 1011.5
20260509181923 32 360 3.2 8.0 0.00 0.03 0.03 55 1011.5
20260509181823 32 360 3.2 8.0 0.00 0.03 0.03 55 1011.5
20260509181723 33 360 3.2 8.0 0.00 0.03 0.03 55 1011.6
20260509181629 33 360 3.2 8.0 0.00 0.03 0.03 54 1011.6
20260509181549 33 360 3.2 8.0 0.00 0.03 0.03 54 1011.6
20260509181429 33 360 3.2 8.0 0.00 0.03 0.03 54 1011.6
20260509181350 33 360 3.2 8.0 0.00 0.03 0.03 55 1011.6
20260509181248 33 360 3.2 9.7 0.00 0.03 0.03 56 1011.7
20260509181127 33 360 3.2 9.7 0.00 0.03 0.03 56 1011.7
20260509181028 33 360 3.2 9.7 0.00 0.03 0.03 56 1011.7
20260509180928 33 360 3.2 9.7 0.00 0.03 0.03 56 1011.6
20260509180832 33 360 4.8 9.7 0.00 0.03 0.03 56 1011.6
20260509180732 33 360 4.8 9.7 0.00 0.03 0.03 56 1011.6
20260509180633 33 360 4.8 9.7 0.00 0.03 0.03 55 1011.6
20260509180554 33 360 4.8 9.7 0.00 0.03 0.03 56 1011.6
20260509180433 33 360 3.2 9.7 0.00 0.03 0.03 56 1011.5
20260509180333 33 360 3.2 9.7 0.00 0.03 0.03 57 1011.5
20260509180253 33 360 3.2 9.7 0.00 0.03 0.03 57 1011.6
20260509180133 33 360 3.2 9.7 0.00 0.03 0.03 57 1011.6
20260509180018 33 360 3.2 9.7 0.00 0.03 0.03 57 1011.6
20260509175938 33 360 3.2 9.7 0.00 0.03 0.03 57 1011.6
20260509175819 33 360 3.2 9.7 0.00 0.03 0.03 57 1011.7
20260509175719 33 360 3.2 9.7 0.00 0.03 0.03 57 1011.6
20260509175618 33 360 3.2 9.7 0.00 0.03 0.03 57 1011.7
20260509175539 32 360 3.2 9.7 0.00 0.03 0.03 59 1011.7
20260509175418 32 360 3.2 9.7 0.00 0.03 0.03 59 1011.7
20260509175322 32 360 3.2 9.7 0.00 0.03 0.03 59 1011.8
20260509175222 32 360 3.2 9.7 0.00 0.03 0.03 60 1011.8
20260509175123 32 360 3.2 9.7 0.00 0.03 0.03 60 1011.8
20260509175043 32 360 3.2 6.4 0.00 0.03 0.03 60 1011.9
20260509174924 32 360 3.2 6.4 0.00 0.03 0.03 61 1011.8
20260509174824 32 360 3.2 6.4 0.00 0.03 0.03 61 1011.8
20260509174725 32 360 3.2 9.7 0.00 0.03 0.03 61 1011.8
20260509174629 32 360 3.2 9.7 0.00 0.03 0.03 63 1011.8
20260509174528 32 360 3.2 9.7 0.00 0.03 0.03 63 1011.8
20260509174429 31 360 3.2 9.7 0.00 0.03 0.03 63 1011.8
20260509174330 31 360 3.2 12.9 0.00 0.03 0.03 63 1011.9
20260509174230 31 360 3.2 12.9 0.00 0.03 0.03 63 1011.9
20260509174131 31 360 3.2 12.9 0.00 0.03 0.03 63 1011.9
20260509174030 31 360 3.2 12.9 0.00 0.03 0.03 62 1012.0
20260509173951 31 360 4.8 12.9 0.00 0.03 0.03 62 1012.0
20260509173834 31 360 3.2 12.9 0.00 0.03 0.03 63 1012.1
20260509173735 31 360 3.2 12.9 0.00 0.03 0.03 63 1012.1
20260509173655 31 284 3.2 12.9 0.00 0.03 0.03 66 1012.1
20260509173533 31 360 4.8 12.9 0.00 0.03 0.03 66 1012.2
20260509173434 31 360 4.8 12.9 0.00 0.03 0.03 66 1012.3
20260509173334 30 360 4.8 12.9 0.00 0.03 0.03 66 1012.3
20260509173235 30 360 3.2 9.7 0.00 0.03 0.03 66 1012.3
20260509173119 30 360 3.2 12.9 0.00 0.03 0.03 66 1012.3
20260509173020 30 360 3.2 12.9 0.00 0.03 0.03 64 1012.3
20260509172921 30 360 3.2 14.5 0.00 0.03 0.03 64 1012.3
20260509172823 31 360 3.2 14.5 0.00 0.03 0.03 64 1012.3
20260509172723 31 360 3.2 14.5 0.00 0.03 0.03 64 1012.3
20260509172642 31 360 3.2 14.5 0.00 0.03 0.03 67 1012.3
20260509172522 31 360 3.2 14.5 0.00 0.03 0.03 67 1012.3
20260509172428 30 360 3.2 14.5 0.00 0.03 0.03 67 1012.3
20260509172328 30 360 3.2 17.7 0.00 0.03 0.03 67 1012.2
20260509172229 30 360 3.2 17.7 0.00 0.03 0.03 66 1012.2
20260509172129 30 360 4.8 17.7 0.00 0.03 0.03 67 1012.2
20260509172030 30 360 4.8 17.7 0.00 0.03 0.03 68 1012.1
20260509171930 30 360 4.8 17.7 0.00 0.03 0.03 68 1012.2
20260509171850 30 360 4.8 17.7 0.00 0.03 0.03 67 1012.2
20260509171735 30 360 4.8 17.7 0.00 0.03 0.03 65 1012.1
20260509171616 30 360 6.4 17.7 0.00 0.03 0.03 65 1012.2
20260509171516 30 360 6.4 17.7 0.00 0.03 0.03 65 1012.1
20260509171417 30 360 6.4 17.7 0.00 0.03 0.03 65 1012.0
20260509171318 30 360 4.8 16.1 0.00 0.03 0.03 68 1012.0
20260509171218 30 360 4.8 16.1 0.00 0.03 0.03 68 1012.0
20260509171122 30 360 4.8 16.1 0.00 0.03 0.03 68 1012.1
20260509171022 30 360 4.8 16.1 0.00 0.03 0.03 68 1012.0
20260509170923 30 360 4.8 16.1 0.00 0.03 0.03 68 1012.0
20260509170843 30 360 4.8 9.7 0.00 0.03 0.03 69 1012.1
20260509170723 30 360 4.8 9.7 0.00 0.03 0.03 69 1012.1
20260509170623 29 360 4.8 9.7 0.00 0.03 0.03 69 1012.1
20260509170524 29 360 4.8 9.7 0.00 0.03 0.03 69 1012.1
20260509170429 29 360 4.8 9.7 0.00 0.03 0.03 69 1012.1
20260509170329 29 360 4.8 9.7 0.00 0.03 0.03 69 1012.2
20260509170229 29 360 4.8 9.7 0.00 0.03 0.03 68 1012.2
20260509170150 29 360 3.2 9.7 0.00 0.03 0.03 68 1012.2
20260509170030 30 360 3.2 12.9 0.00 0.03 0.03 68 1012.1
20260509165931 30 360 3.2 12.9 0.00 0.03 0.03 68 1012.3
20260509165831 30 360 3.2 12.9 0.00 0.03 0.03 68 1012.2
20260509165757 30 360 3.2 12.9 0.00 0.03 0.03 68 1012.2
20260509165635 30 360 4.8 14.5 0.00 0.03 0.03 70 1012.3
20260509165535 30 360 4.8 14.5 0.00 0.03 0.03 69 1012.3
20260509165415 30 360 4.8 14.5 0.00 0.03 0.03 69 1012.3
20260509165316 30 360 4.8 14.5 0.00 0.03 0.03 69 1012.3
20260509165219 29 360 4.8 14.5 0.00 0.03 0.03 69 1012.3
20260509165119 29 360 4.8 14.5 0.00 0.03 0.03 69 1012.2
20260509165044 29 360 4.8 14.5 0.00 0.03 0.03 69 1012.4
20260509164924 30 360 4.8 14.5 0.00 0.03 0.03 66 1012.3
20260509164825 30 360 4.8 14.5 0.00 0.03 0.03 66 1012.3
20260509164725 30 360 4.8 14.5 0.00 0.03 0.03 66 1012.3
20260509164646 30 360 4.8 14.5 0.00 0.03 0.03 68 1012.2
20260509164545 30 360 3.2 14.5 0.00 0.03 0.03 68 1012.3
20260509164424 30 360 4.8 14.5 0.00 0.03 0.03 65 1012.1
20260509164324 31 360 3.2 12.9 0.00 0.03 0.03 65 1012.3
20260509164229 31 360 3.2 8.0 0.00 0.03 0.03 67 1012.3
20260509164128 31 360 3.2 8.0 0.00 0.03 0.03 67 1012.3
20260509164028 30 360 3.2 8.0 0.00 0.03 0.03 67 1012.3
20260509163928 30 360 3.2 8.0 0.00 0.03 0.03 67 1012.3
20260509163828 30 360 3.2 8.0 0.00 0.03 0.03 68 1012.3
20260509163729 30 360 3.2 8.0 0.00 0.03 0.03 67 1012.3
20260509163630 30 360 3.2 8.0 0.00 0.03 0.03 67 1012.3
20260509163534 30 360 1.6 8.0 0.00 0.03 0.03 67 1012.3
20260509163433 30 360 1.6 8.0 0.00 0.03 0.03 67 1012.5
20260509163353 30 360 1.6 8.0 0.00 0.03 0.03 67 1012.4
20260509163253 30 360 3.2 8.0 0.00 0.03 0.03 67 1012.4
20260509163152 30 360 3.2 8.0 0.00 0.03 0.03 67 1012.4
20260509163032 30 360 3.2 8.0 0.00 0.03 0.03 67 1012.3
20260509162932 30 360 3.2 8.0 0.00 0.03 0.03 69 1012.4
20260509162834 30 360 3.2 8.0 0.00 0.03 0.03 69 1012.4
20260509162737 30 360 3.2 8.0 0.00 0.03 0.03 71 1012.3
20260509162617 30 360 3.2 8.0 0.00 0.03 0.03 71 1012.3
20260509162537 29 360 3.2 8.0 0.00 0.03 0.03 70 1012.3
20260509162417 29 360 3.2 8.0 0.00 0.03 0.03 70 1012.3
20260509162318 29 360 1.6 8.0 0.00 0.03 0.03 70 1012.3
20260509162218 29 360 1.6 8.0 0.00 0.03 0.03 71 1012.3
20260509162118 29 360 3.2 8.0 0.00 0.03 0.03 69 1012.3
20260509162017 30 360 3.2 14.5 0.00 0.03 0.03 69 1012.4
20260509161922 30 360 3.2 14.5 0.00 0.03 0.03 70 1012.3
20260509161822 29 360 3.2 14.5 0.00 0.03 0.03 70 1012.3
20260509161723 29 360 4.8 14.5 0.00 0.03 0.03 72 1012.3
20260509161623 29 360 4.8 14.5 0.00 0.03 0.03 72 1012.2
20260509161524 29 360 4.8 14.5 0.00 0.03 0.03 72 1012.3
20260509161423 28 360 4.8 14.5 0.00 0.03 0.03 72 1012.3
20260509161328 28 360 4.8 14.5 0.00 0.03 0.03 72 1012.3
20260509161230 28 360 4.8 14.5 0.00 0.03 0.03 72 1012.3
20260509161131 28 360 3.2 14.5 0.00 0.03 0.03 72 1012.3
20260509161032 28 360 3.2 14.5 0.00 0.03 0.03 71 1012.2
20260509160951 28 360 3.2 14.5 0.00 0.03 0.03 74 1012.3
20260509160832 28 360 1.6 8.0 0.00 0.03 0.03 74 1012.3
20260509160733 28 360 1.6 8.0 0.00 0.03 0.03 76 1012.2
20260509160637 28 360 1.6 8.0 0.00 0.03 0.03 76 1012.3
20260509160537 28 360 1.6 9.7 0.00 0.03 0.03 76 1012.3
20260509160436 28 360 3.2 9.7 0.00 0.03 0.03 76 1012.3
20260509160335 27 360 3.2 9.7 0.00 0.03 0.03 76 1012.3
20260509160216 27 360 3.2 9.7 0.00 0.03 0.03 76 1012.3
20260509160116 27 360 3.2 9.7 0.00 0.03 0.03 76 1012.3
20260509160017 27 360 3.2 12.9 0.00 0.03 0.03 77 1012.3
20260509155922 27 360 3.2 12.9 0.00 0.03 0.03 78 1012.3
20260509155843 27 360 3.2 12.9 0.00 0.03 0.03 78 1012.4
20260509155742 27 360 3.2 12.9 0.00 0.03 0.03 78 1012.4
20260509155641 27 360 3.2 12.9 0.00 0.03 0.03 78 1012.3
20260509155521 27 360 3.2 12.9 0.00 0.03 0.03 79 1012.4
20260509155421 26 360 3.2 12.9 0.00 0.03 0.03 81 1012.4
20260509155320 26 360 3.2 12.9 0.00 0.03 0.03 81 1012.4
20260509155220 26 360 4.8 12.9 0.00 0.03 0.03 81 1012.4
20260509155121 26 360 4.8 12.9 0.00 0.03 0.03 82 1012.4
20260509155026 26 360 4.8 12.9 0.00 0.03 0.03 82 1012.4
20260509154926 26 360 4.8 12.9 0.00 0.03 0.03 82 1012.4
20260509154846 26 360 4.8 12.9 0.00 0.03 0.03 82 1012.4
20260509154726 26 360 6.4 12.9 0.00 0.03 0.03 82 1012.4
20260509154626 26 360 4.8 12.9 0.00 0.03 0.03 83 1012.4
20260509154526 26 360 4.8 12.9 0.00 0.03 0.03 83 1012.4
20260509154427 26 360 4.8 17.7 0.00 0.03 0.03 83 1012.4
20260509154331 26 360 4.8 17.7 0.00 0.03 0.03 84 1012.4
20260509154231 25 360 4.8 17.7 0.00 0.03 0.03 84 1012.4
20260509154132 25 360 6.4 17.7 0.00 0.03 0.03 84 1012.5
20260509154031 25 360 6.4 17.7 0.00 0.03 0.03 84 1012.4
20260509153932 25 360 6.4 17.7 0.00 0.03 0.03 85 1012.5
20260509153830 25 360 6.4 17.7 0.00 0.03 0.03 85 1012.4
20260509153733 25 360 6.4 17.7 0.00 0.03 0.03 85 1012.5
20260509153633 25 360 6.4 19.3 0.00 0.03 0.03 85 1012.5
20260509153534 25 360 6.4 19.3 0.00 0.03 0.03 87 1012.5
20260509153434 25 360 4.8 19.3 0.00 0.03 0.03 87 1012.5
20260509153333 25 360 6.4 19.3 0.00 0.03 0.03 87 1012.5
20260509153233 25 360 6.4 19.3 0.00 0.03 0.03 87 1012.5
20260509153134 25 360 6.4 19.3 0.00 0.03 0.03 87 1012.5
20260509153017 25 360 6.4 19.3 0.00 0.03 0.03 87 1012.5
20260509152938 25 360 4.8 19.3 0.00 0.03 0.03 89 1012.5
20260509152819 25 360 4.8 19.3 0.00 0.03 0.03 89 1012.5
20260509152718 25 360 6.4 19.3 0.00 0.03 0.03 90 1012.5
20260509152618 25 360 6.4 19.3 0.00 0.03 0.03 90 1012.5
20260509152519 24 360 6.4 19.3 0.00 0.03 0.03 90 1012.5
20260509152438 24 360 8.0 19.3 0.00 0.03 0.03 91 1012.5
20260509152319 24 360 9.7 19.3 0.00 0.03 0.03 90 1012.6
20260509152243 24 360 9.7 19.3 0.00 0.03 0.03 91 1012.6
20260509152123 23 360 9.7 17.7 0.00 0.03 0.03 91 1012.6
20260509152021 23 360 8.0 16.1 0.00 0.03 0.03 91 1012.6
20260509151921 23 360 8.0 16.1 0.00 0.03 0.03 91 1012.6
20260509151820 23 360 6.4 17.7 0.00 0.03 0.03 92 1012.6
20260509151719 23 360 6.4 17.7 0.00 0.03 0.03 92 1012.6
20260509151641 23 360 4.8 17.7 0.00 0.03 0.03 92 1012.5
20260509151520 23 360 6.4 17.7 0.00 0.03 0.03 92 1012.7
20260509151424 23 360 6.4 17.7 0.00 0.03 0.03 92 1012.6
20260509151345 23 360 6.4 17.7 0.00 0.03 0.03 92 1012.6
20260509151224 23 360 8.0 17.7 0.00 0.03 0.03 92 1012.5
20260509151125 23 360 9.7 17.7 0.00 0.03 0.03 92 1012.4
20260509151024 23 360 9.7 17.7 0.00 0.03 0.03 92 1012.4
20260509150926 23 360 9.7 17.7 0.00 0.03 0.03 92 1012.4
20260509150826 23 360 9.7 17.7 0.00 0.03 0.03 92 1012.4
20260509150726 23 360 6.4 16.1 0.00 0.03 0.03 93 1012.5
20260509150630 23 360 6.4 14.5 0.00 0.03 0.03 93 1012.5
20260509150532 23 360 4.8 9.7 0.00 0.03 0.03 93 1012.4
20260509150432 23 360 4.8 9.7 0.00 0.03 0.03 93 1012.5
20260509150333 23 360 4.8 9.7 0.00 0.03 0.03 93 1012.5
20260509150232 23 360 4.8 9.7 0.00 0.03 0.03 93 1012.5
20260509150133 23 360 3.2 14.5 0.00 0.03 0.03 93 1012.6
20260509150037 23 360 3.2 14.5 0.00 0.03 0.03 93 1012.6
20260509145917 23 360 3.2 14.5 0.00 0.03 0.03 93 1012.6
20260509145837 23 360 4.8 17.7 0.00 0.03 0.03 93 1012.6
20260509145737 23 360 4.8 17.7 0.00 0.03 0.03 93 1012.5
20260509145616 23 360 8.0 17.7 0.00 0.03 0.03 93 1012.4
20260509145516 22 360 8.0 17.7 0.00 0.03 0.03 93 1012.3
20260509145417 22 360 9.7 17.7 0.00 0.03 0.03 93 1012.3
20260509145337 22 360 9.7 20.9 0.00 0.03 0.03 93 1012.3
20260509145221 22 360 9.7 22.5 0.00 0.03 0.03 93 1012.3
20260509145122 22 360 9.7 22.5 0.00 0.03 0.03 93 1012.3
20260509145024 22 360 9.7 22.5 0.00 0.03 0.03 93 1012.3
20260509144925 22 360 11.3 22.5 0.00 0.03 0.03 93 1012.3
20260509144824 22 360 11.3 22.5 0.00 0.03 0.03 93 1012.3
20260509144725 22 360 12.9 22.5 0.00 0.03 0.03 93 1012.2
20260509144629 22 360 12.9 22.5 0.00 0.03 0.03 93 1012.2
20260509144531 22 360 12.9 22.5 0.00 0.03 0.03 93 1012.1
20260509144431 22 360 12.9 22.5 0.00 0.03 0.03 93 1012.1
20260509144331 22 360 11.3 20.9 0.00 0.03 0.03 93 1012.2
20260509144232 22 360 9.7 20.9 0.00 0.03 0.03 93 1012.1
20260509144131 22 360 8.0 20.9 0.00 0.03 0.03 93 1012.0
20260509144032 22 360 8.0 20.9 0.00 0.03 0.03 93 1012.1
20260509143936 22 360 8.0 20.9 0.00 0.03 0.03 93 1012.0
20260509143836 22 360 9.7 20.9 0.00 0.03 0.03 93 1012.1
20260509143716 22 360 9.7 20.9 0.00 0.03 0.03 93 1012.0
20260509143617 22 360 11.3 20.9 0.00 0.03 0.03 93 1012.1
20260509143518 22 360 11.3 20.9 0.00 0.03 0.03 93 1012.1
20260509143418 22 360 12.9 20.9 0.00 0.03 0.03 93 1012.1
20260509143320 22 360 11.3 20.9 0.00 0.03 0.03 93 1012.0
20260509143224 22 360 12.9 20.9 0.00 0.03 0.03 94 1011.9
20260509143125 22 360 9.7 19.3 0.00 0.03 0.03 94 1011.9
20260509143025 22 360 8.0 19.3 0.00 0.03 0.03 94 1011.9
20260509142926 22 360 8.0 20.9 0.00 0.03 0.03 94 1011.8
20260509142826 22 360 8.0 20.9 0.00 0.03 0.03 94 1011.8
20260509142726 22 360 9.7 25.7 0.00 0.03 0.03 94 1011.8
20260509142630 22 360 11.3 25.7 0.00 0.03 0.03 94 1011.8
20260509142531 22 360 12.9 25.7 0.00 0.03 0.03 94 1011.9
20260509142431 22 360 12.9 25.7 0.00 0.03 0.03 94 1011.9
20260509142331 22 360 12.9 25.7 0.00 0.03 0.03 94 1011.9
20260509142230 22 360 14.5 25.7 0.00 0.03 0.03 94 1011.9
20260509142131 22 360 12.9 25.7 0.00 0.03 0.03 94 1012.1
20260509142031 22 360 12.9 25.7 0.00 0.03 0.03 94 1012.0
20260509141915 22 360 11.3 25.7 0.00 0.03 0.03 94 1012.0
20260509141835 22 360 12.9 24.1 0.00 0.03 0.03 94 1012.0
20260509141716 22 360 12.9 24.1 0.00 0.03 0.03 94 1011.9
20260509141617 22 360 14.5 24.1 0.00 0.03 0.03 94 1011.8
20260509141537 22 360 12.9 24.1 0.00 0.03 0.03 94 1011.8
20260509141437 22 360 11.3 24.1 0.00 0.03 0.03 94 1011.7
20260509141316 22 360 11.3 24.1 0.00 0.03 0.03 94 1011.7
20260509141222 22 360 11.3 24.1 0.00 0.03 0.03 94 1011.7
20260509141122 22 360 11.3 19.3 0.00 0.03 0.03 94 1011.6
20260509141022 22 360 12.9 19.3 0.00 0.03 0.03 94 1011.6
20260509140923 22 360 14.5 19.3 0.00 0.03 0.03 94 1011.7
20260509140823 22 360 14.5 19.3 0.00 0.03 0.03 94 1011.7
20260509140723 22 360 14.5 17.7 0.00 0.03 0.03 94 1011.7
20260509140644 22 360 12.9 17.7 0.00 0.03 0.03 94 1011.7
20260509140528 22 360 11.3 17.7 0.00 0.03 0.03 94 1011.7
20260509140428 22 360 9.7 16.1 0.00 0.03 0.03 94 1011.6
20260509140328 22 360 9.7 16.1 0.00 0.03 0.03 94 1011.6
20260509140229 22 360 6.4 14.5 0.00 0.03 0.03 94 1011.6
20260509140149 22 360 6.4 14.5 0.00 0.03 0.03 94 1011.6
20260509140030 22 360 6.4 14.5 0.00 0.03 0.03 94 1011.6
20260509135950 22 360 4.8 14.5 0.00 0.03 0.03 95 1011.6
20260509135828 22 360 4.8 12.9 0.00 0.03 0.03 94 1011.6
20260509135732 22 360 4.8 9.7 0.00 0.03 0.03 94 1011.6
20260509135632 22 360 4.8 9.7 0.00 0.03 0.03 94 1011.6
20260509135532 22 360 4.8 9.7 0.00 0.03 0.03 94 1011.5
20260509135432 22 360 4.8 8.0 0.00 0.03 0.03 94 1011.6
20260509135333 22 360 3.2 8.0 0.00 0.03 0.03 94 1011.6
20260509135233 22 360 3.2 8.0 0.00 0.03 0.03 94 1011.6
20260509135134 22 360 3.2 8.0 0.00 0.03 0.03 94 1011.7
20260509135018 22 360 3.2 4.8 0.00 0.03 0.03 94 1011.8
20260509134918 22 360 1.6 4.8 0.00 0.03 0.03 94 1011.8
20260509134818 22 360 1.6 4.8 0.00 0.03 0.03 94 1011.9
20260509134718 22 360 1.6 4.8 0.00 0.03 0.03 94 1011.9
20260509134618 22 360 1.6 4.8 0.00 0.03 0.03 94 1012.0
20260509134538 22 360 0.0 3.2 0.00 0.03 0.03 94 1012.0
20260509134418 22 360 0.0 8.0 0.00 0.03 0.03 94 1012.0
20260509134338 22 360 0.0 8.0 0.00 0.03 0.03 94 1012.1
20260509134222 22 360 0.0 8.0 0.00 0.03 0.03 94 1012.1
20260509134124 22 360 0.0 16.1 0.00 0.03 0.03 94 1012.1
20260509134045 22 360 1.6 16.1 0.00 0.03 0.03 94 1012.1
20260509133923 22 360 1.6 16.1 0.00 0.03 0.03 94 1012.0
20260509133824 22 360 3.2 16.1 0.00 0.03 0.03 94 1012.1
20260509133744 22 360 3.2 16.1 0.00 0.03 0.03 94 1012.1
20260509133624 22 360 3.2 16.1 0.00 0.03 0.03 94 1012.1
20260509133528 22 360 4.8 16.1 0.00 0.03 0.03 94 1012.1
20260509133428 22 360 6.4 16.1 0.00 0.03 0.03 94 1012.1
20260509133349 22 360 8.0 16.1 0.00 0.03 0.03 94 1012.1
20260509133229 22 360 8.0 16.1 0.00 0.03 0.03 94 1012.1
20260509133128 22 360 8.0 16.1 0.00 0.03 0.03 94 1012.1
20260509133027 22 360 6.4 12.9 0.00 0.03 0.03 94 1012.1
20260509132927 22 360 4.8 12.9 0.00 0.03 0.03 94 1012.1
20260509132828 22 360 4.8 9.7 0.00 0.03 0.03 94 1012.0
20260509132730 22 360 6.4 9.7 0.00 0.03 0.03 94 1012.1
20260509132633 22 360 6.4 9.7 0.00 0.03 0.03 94 1012.1
20260509132534 22 360 4.8 9.7 0.00 0.03 0.03 94 1012.1
20260509132434 22 360 4.8 9.7 0.00 0.03 0.03 94 1012.2
20260509132335 22 360 3.2 9.7 0.00 0.03 0.03 94 1012.2
20260509132236 22 360 3.2 9.7 0.00 0.03 0.03 94 1012.2
20260509132156 22 360 3.2 9.7 0.00 0.03 0.03 94 1012.3
20260509132056 22 360 4.8 9.7 0.00 0.03 0.03 94 1012.3
20260509131919 22 360 6.4 9.7 0.00 0.03 0.03 94 1012.4
20260509131820 22 360 6.4 9.7 0.00 0.03 0.03 94 1012.4
20260509131721 22 360 6.4 9.7 0.00 0.03 0.03 94 1012.4
20260509131621 22 360 4.8 9.7 0.00 0.03 0.03 94 1012.5
20260509131542 22 360 4.8 9.7 0.00 0.03 0.03 94 1012.4
20260509131421 22 360 3.2 9.7 0.00 0.03 0.03 94 1012.4
20260509131322 22 360 4.8 9.7 0.00 0.03 0.03 94 1012.5
20260509131226 22 360 4.8 9.7 0.00 0.03 0.03 94 1012.4
20260509131127 22 336 4.8 9.7 0.00 0.03 0.03 94 1012.4
20260509131048 22 360 4.8 9.7 0.00 0.03 0.03 94 1012.4
20260509130927 22 18 6.4 9.7 0.00 0.03 0.03 94 1012.4
20260509130827 22 360 6.4 9.7 0.00 0.03 0.03 94 1012.2
20260509130747 22 360 6.4 9.7 0.00 0.03 0.03 94 1012.1
20260509130627 22 360 6.4 12.9 0.00 0.03 0.03 94 1012.1
20260509130533 22 360 4.8 12.9 0.00 0.03 0.03 94 1012.1
20260509130433 22 360 4.8 12.9 0.00 0.03 0.03 94 1012.0
20260509130333 22 347 4.8 12.9 0.00 0.03 0.03 94 1012.0
20260509130233 22 303 4.8 12.9 0.00 0.03 0.03 94 1012.0
20260509130134 22 360 6.4 12.9 0.00 0.03 0.03 94 1012.0
20260509130035 22 360 6.4 12.9 0.00 0.03 0.03 94 1011.9
20260509125934 22 360 6.4 12.9 0.00 0.03 0.03 94 1012.0
20260509125820 22 360 8.0 12.9 0.00 0.03 0.03 94 1012.0
20260509125719 22 360 6.4 12.9 0.00 0.03 0.03 94 1012.0
20260509125620 22 360 6.4 11.3 0.00 0.03 0.03 94 1012.0
20260509125541 22 360 6.4 11.3 0.00 0.03 0.03 94 1012.0
20260509125440 22 360 4.8 8.0 0.00 0.03 0.03 94 1011.9
20260509125319 22 360 4.8 6.4 0.00 0.03 0.03 94 1011.9
20260509125220 22 360 3.2 6.4 0.00 0.03 0.03 94 1011.9
20260509125125 22 360 1.6 4.8 0.00 0.03 0.03 94 1011.9
20260509125025 22 360 1.6 4.8 0.00 0.03 0.03 94 1011.9
20260509124925 22 360 0.0 3.2 0.00 0.03 0.03 94 1011.8
20260509124825 22 360 0.0 3.2 0.00 0.03 0.03 94 1011.8
20260509124726 22 360 0.0 3.2 0.00 0.03 0.03 94 1011.8
20260509124627 22 360 0.0 3.2 0.00 0.03 0.03 94 1011.8
20260509124548 22 360 0.0 3.2 0.00 0.03 0.03 94 1011.8
20260509124431 22 360 1.6 3.2 0.00 0.03 0.03 94 1011.8
20260509124351 22 360 1.6 3.2 0.00 0.03 0.03 94 1011.8
20260509124231 22 360 1.6 3.2 0.00 0.03 0.03 94 1011.8
20260509124132 22 360 0.0 3.2 0.00 0.03 0.03 94 1011.9
20260509124032 22 360 0.0 3.2 0.00 0.03 0.03 94 1011.8
20260509123933 22 360 1.6 3.2 0.00 0.03 0.03 94 1011.9
20260509123834 22 360 1.6 3.2 0.00 0.03 0.03 94 1011.9
20260509123718 22 360 1.6 3.2 0.00 0.03 0.03 94 1011.9
20260509123619 22 360 1.6 3.2 0.00 0.03 0.03 94 1011.8
20260509123540 22 360 1.6 3.2 0.00 0.03 0.03 94 1011.8
20260509123419 22 360 1.6 3.2 0.00 0.03 0.03 94 1011.8
20260509123320 22 360 1.6 3.2 0.00 0.03 0.03 94 1011.8
20260509123221 22 360 1.6 6.4 0.00 0.03 0.03 94 1011.7
20260509123123 22 360 0.0 6.4 0.00 0.03 0.03 94 1011.8
20260509123027 22 360 0.0 6.4 0.00 0.03 0.03 94 1011.8
20260509122928 22 360 1.6 6.4 0.00 0.03 0.03 94 1011.8
20260509122828 22 360 1.6 6.4 0.00 0.03 0.03 94 1011.8
20260509122729 22 360 1.6 6.4 0.00 0.03 0.03 94 1011.8
20260509122629 22 360 3.2 6.4 0.00 0.03 0.03 94 1011.7
20260509122549 22 360 3.2 6.4 0.00 0.03 0.03 94 1011.7
20260509122428 22 360 3.2 6.4 0.00 0.03 0.03 94 1011.7
20260509122333 22 360 3.2 6.4 0.00 0.03 0.03 94 1011.6
20260509122234 22 360 3.2 6.4 0.00 0.03 0.03 94 1011.6
20260509122134 22 360 1.6 6.4 0.00 0.03 0.03 94 1011.6
20260509122055 22 360 1.6 6.4 0.00 0.03 0.03 94 1011.7
20260509121934 22 360 1.6 4.8 0.00 0.03 0.03 94 1011.7
20260509121835 22 360 1.6 4.8 0.00 0.03 0.03 94 1011.8
20260509121719 22 360 1.6 4.8 0.00 0.03 0.03 94 1011.9
20260509121640 22 360 1.6 4.8 0.00 0.03 0.03 94 1011.9
20260509121519 22 360 0.0 3.2 0.00 0.03 0.03 94 1012.0
20260509121419 22 360 0.0 0.0 0.00 0.03 0.03 94 1012.0
20260509121320 22 360 0.0 3.2 0.00 0.03 0.03 94 1011.9
20260509121221 22 360 0.0 3.2 0.00 0.03 0.03 94 1011.9
20260509121121 22 360 0.0 3.2 0.00 0.03 0.03 94 1012.0
20260509121025 22 360 0.0 3.2 0.00 0.03 0.03 94 1012.0
20260509120926 22 360 0.0 3.2 0.00 0.03 0.03 94 1012.0
20260509120827 22 360 0.0 3.2 0.00 0.03 0.03 94 1011.9
20260509120728 22 360 0.0 3.2 0.00 0.03 0.03 94 1011.9
20260509120648 22 360 0.0 3.2 0.00 0.03 0.03 94 1011.9
20260509120528 22 360 0.0 3.2 0.00 0.03 0.03 94 1011.9
20260509120427 22 360 1.6 3.2 0.00 0.03 0.03 94 1011.8
20260509120347 22 360 1.6 3.2 0.00 0.03 0.03 94 1011.8
20260509120251 22 360 1.6 3.2 0.00 0.03 0.03 94 1011.8
20260509120131 22 360 1.6 3.2 0.00 0.03 0.03 94 1011.7
20260509120028 22 360 0.0 3.2 0.00 0.03 0.03 94 1011.9
20260509115929 22 360 0.0 4.8 0.00 0.03 0.03 94 1011.8
20260509115850 22 360 0.0 4.8 0.00 0.03 0.03 94 1011.8
20260509115730 22 360 0.0 4.8 0.00 0.03 0.03 94 1011.9
20260509115630 22 360 0.0 4.8 0.00 0.03 0.03 94 1011.8
20260509115535 22 360 1.6 4.8 0.00 0.03 0.03 94 1011.9
20260509115455 22 360 1.6 4.8 0.00 0.03 0.03 94 1011.9
20260509115334 22 360 1.6 4.8 0.00 0.03 0.03 94 1011.8
20260509115235 22 360 1.6 4.8 0.00 0.03 0.03 94 1011.9
20260509115155 22 360 3.2 4.8 0.00 0.03 0.03 94 1011.9
20260509115035 22 360 3.2 4.8 0.00 0.03 0.03 94 1011.9
20260509114955 22 360 3.2 9.7 0.00 0.03 0.03 94 1011.8
20260509114835 22 316 1.6 9.7 0.00 0.03 0.03 94 1011.8
20260509114719 22 360 1.6 9.7 0.00 0.03 0.03 94 1011.9
20260509114619 22 360 1.6 9.7 0.00 0.03 0.03 94 1011.8
20260509114520 22 315 1.6 12.9 0.00 0.03 0.03 94 1011.9
20260509114421 22 360 1.6 14.5 0.00 0.03 0.03 94 1011.9
20260509114322 22 360 3.2 14.5 0.00 0.03 0.03 94 1011.9
20260509114243 22 360 3.2 14.5 0.00 0.03 0.03 94 1011.9
20260509114116 22 360 4.8 14.5 0.00 0.03 0.03 94 1012.0
20260509114020 22 360 6.4 14.5 0.00 0.03 0.03 94 1012.0
20260509113920 22 360 8.0 14.5 0.00 0.03 0.03 94 1012.2
20260509113821 22 360 8.0 14.5 0.00 0.03 0.03 94 1012.2
20260509113723 22 360 8.0 14.5 0.00 0.03 0.03 94 1012.2
20260509113624 22 360 8.0 14.5 0.00 0.03 0.03 94 1012.3
20260509113545 22 360 6.4 12.9 0.00 0.03 0.03 94 1012.3
20260509113424 22 360 4.8 9.7 0.00 0.03 0.03 94 1012.4
20260509113348 22 360 4.8 9.7 0.00 0.03 0.03 94 1012.4
20260509113228 22 360 4.8 8.0 0.00 0.03 0.03 93 1012.4
20260509113147 22 360 4.8 8.0 0.00 0.03 0.03 94 1012.4
20260509113027 22 360 4.8 6.4 0.00 0.03 0.03 93 1012.5
20260509112928 22 360 4.8 6.4 0.00 0.03 0.03 93 1012.6
20260509112828 22 360 4.8 6.4 0.00 0.03 0.03 94 1012.5
20260509112729 22 360 4.8 6.4 0.00 0.03 0.03 94 1012.5
20260509112646 22 360 3.2 6.4 0.00 0.03 0.03 93 1012.6
20260509112526 22 360 3.2 6.4 0.00 0.03 0.03 93 1012.6
20260509112430 22 360 1.6 4.8 0.00 0.03 0.03 93 1012.6
20260509112331 22 360 1.6 4.8 0.00 0.03 0.03 93 1012.6
20260509112252 22 360 0.0 4.8 0.00 0.03 0.03 93 1012.6
20260509112130 22 315 0.0 4.8 0.00 0.03 0.03 93 1012.6
20260509112031 22 315 0.0 4.8 0.00 0.03 0.03 93 1012.5
20260509111951 22 360 0.0 4.8 0.00 0.03 0.03 93 1012.6
20260509111830 22 360 0.0 4.8 0.00 0.03 0.03 93 1012.5
20260509111730 22 360 1.6 4.8 0.00 0.03 0.03 93 1012.6
20260509111634 22 360 1.6 4.8 0.00 0.03 0.03 93 1012.5
20260509111535 22 360 1.6 8.0 0.00 0.03 0.03 93 1012.5
20260509111435 22 360 1.6 8.0 0.00 0.03 0.03 93 1012.5
20260509111336 22 360 1.6 8.0 0.00 0.03 0.03 93 1012.5
20260509111218 22 360 1.6 8.0 0.00 0.03 0.03 93 1012.6
20260509111119 22 360 3.2 8.0 0.00 0.03 0.03 93 1012.7
20260509111023 22 360 3.2 8.0 0.00 0.03 0.03 93 1012.6
20260509110924 22 360 3.2 9.7 0.00 0.03 0.03 93 1012.7
20260509110824 22 360 3.2 9.7 0.00 0.03 0.03 93 1012.7
20260509110745 22 360 3.2 9.7 0.00 0.03 0.03 93 1012.7
20260509110625 22 360 1.6 9.7 0.00 0.03 0.03 93 1012.7
20260509110525 22 360 3.2 9.7 0.00 0.03 0.03 93 1012.6
20260509110446 22 360 3.2 9.7 0.00 0.03 0.03 93 1012.7
20260509110330 22 360 3.2 9.7 0.00 0.03 0.03 93 1012.7
20260509110230 22 360 3.2 9.7 0.00 0.03 0.03 93 1012.7
20260509110130 22 360 4.8 9.7 0.00 0.03 0.03 93 1012.8
20260509110032 22 360 4.8 9.7 0.00 0.03 0.03 93 1012.8
20260509105931 22 360 4.8 8.0 0.00 0.03 0.03 93 1012.8
20260509105851 22 360 4.8 8.0 0.00 0.03 0.03 93 1012.8
20260509105750 22 360 4.8 8.0 0.00 0.03 0.03 93 1012.8
20260509105629 22 360 4.8 8.0 0.00 0.03 0.03 93 1012.8
20260509105549 22 360 4.8 9.7 0.00 0.03 0.03 93 1012.9
20260509105452 22 360 4.8 9.7 0.00 0.03 0.03 93 1012.9
20260509105352 22 346 4.8 9.7 0.00 0.03 0.03 93 1012.9
20260509105231 22 360 3.2 9.7 0.00 0.03 0.03 93 1012.9
20260509105132 22 360 4.8 9.7 0.00 0.03 0.03 93 1012.8
20260509105032 22 360 4.8 9.7 0.00 0.03 0.03 93 1012.8
20260509104933 22 360 4.8 9.7 0.00 0.03 0.03 93 1012.8
20260509104833 22 360 4.8 9.7 0.00 0.03 0.03 93 1012.8
20260509104718 22 360 4.8 9.7 0.00 0.03 0.03 93 1012.7
20260509104618 22 360 4.8 8.0 0.00 0.03 0.03 93 1012.7
20260509104518 22 360 4.8 8.0 0.00 0.03 0.03 93 1012.8
20260509104419 22 360 4.8 8.0 0.00 0.03 0.03 93 1012.8
20260509104319 22 22 4.8 8.0 0.00 0.03 0.03 93 1012.8
20260509104219 22 360 6.4 8.0 0.00 0.03 0.03 93 1012.9
20260509104123 22 360 4.8 8.0 0.00 0.03 0.03 93 1012.9
20260509104024 22 360 4.8 8.0 0.00 0.03 0.03 93 1012.9
20260509103924 22 11 4.8 8.0 0.00 0.03 0.03 93 1013.0
20260509103846 22 360 4.8 8.0 0.00 0.03 0.03 93 1012.9
20260509103725 22 360 4.8 8.0 0.00 0.03 0.03 93 1012.9
20260509103624 22 360 4.8 8.0 0.00 0.03 0.03 93 1012.9
20260509103524 22 360 6.4 8.0 0.00 0.03 0.03 93 1012.8
20260509103425 22 360 6.4 8.0 0.00 0.03 0.03 93 1012.8
20260509103330 22 360 6.4 8.0 0.00 0.03 0.03 93 1012.8
20260509103249 22 360 4.8 8.0 0.00 0.03 0.03 93 1012.8
20260509103128 22 360 4.8 8.0 0.00 0.03 0.03 93 1012.8
20260509103028 22 360 4.8 8.0 0.00 0.03 0.03 93 1012.8
20260509102929 22 360 4.8 6.4 0.00 0.03 0.03 93 1012.8
20260509102830 22 360 4.8 6.4 0.00 0.03 0.03 93 1012.8
20260509102730 22 360 4.8 8.0 0.00 0.03 0.03 93 1012.8
20260509102650 22 360 4.8 8.0 0.00 0.03 0.03 93 1012.8
20260509102555 22 360 4.8 8.0 0.00 0.03 0.03 93 1012.8
20260509102434 22 360 4.8 8.0 0.00 0.03 0.03 93 1012.7
20260509102334 22 360 4.8 8.0 0.00 0.03 0.03 93 1012.7
20260509102233 22 360 4.8 8.0 0.00 0.03 0.03 93 1012.7
20260509102133 22 360 4.8 8.0 0.00 0.03 0.03 93 1012.7
20260509102054 22 360 4.8 8.0 0.00 0.03 0.03 93 1012.6
20260509101934 22 360 4.8 8.0 0.00 0.03 0.03 93 1012.6
20260509101818 22 360 4.8 6.4 0.00 0.03 0.03 93 1012.6
20260509101719 22 360 4.8 6.4 0.00 0.03 0.03 93 1012.5
20260509101619 22 360 3.2 6.4 0.00 0.03 0.03 93 1012.5
20260509101520 22 360 3.2 4.8 0.00 0.03 0.03 93 1012.5
20260509101420 22 360 1.6 4.8 0.00 0.03 0.03 93 1012.4
20260509101320 22 360 1.6 4.8 0.00 0.03 0.03 93 1012.5
20260509101220 22 360 0.0 4.8 0.00 0.03 0.03 93 1012.3
20260509101125 22 360 0.0 4.8 0.00 0.03 0.03 93 1012.2
20260509101025 22 360 1.6 4.8 0.00 0.03 0.03 93 1012.3
20260509100926 22 360 1.6 4.8 0.00 0.03 0.03 93 1012.3
20260509100826 22 360 1.6 4.8 0.00 0.03 0.03 93 1012.1
20260509100725 22 360 3.2 4.8 0.00 0.03 0.03 93 1011.9
20260509100626 22 360 3.2 4.8 0.00 0.03 0.03 93 1011.9
20260509100531 22 360 3.2 6.4 0.00 0.03 0.03 93 1011.9
20260509100451 22 360 3.2 6.4 0.00 0.03 0.03 93 1011.8
20260509100331 22 130 3.2 6.4 0.00 0.03 0.03 93 1011.8
20260509100230 22 360 3.2 6.4 0.00 0.03 0.03 92 1011.7
20260509100151 22 360 3.2 6.4 0.00 0.03 0.03 92 1011.7
20260509100028 22 360 3.2 6.4 0.00 0.03 0.03 92 1011.6
20260509095947 22 360 3.2 6.4 0.00 0.03 0.03 92 1011.6
20260509095826 22 360 3.2 6.4 0.00 0.03 0.03 92 1011.6
20260509095729 22 360 3.2 6.4 0.00 0.03 0.03 92 1011.5
20260509095652 22 360 3.2 6.4 0.00 0.03 0.03 93 1011.5
20260509095531 22 360 3.2 6.4 0.00 0.03 0.03 93 1011.5
20260509095432 22 360 3.2 6.4 0.00 0.03 0.03 93 1011.6
20260509095334 22 360 3.2 6.4 0.00 0.03 0.03 93 1011.6
20260509095235 22 360 3.2 6.4 0.00 0.03 0.03 93 1011.5
20260509095136 22 360 3.2 4.8 0.00 0.03 0.03 93 1011.6
20260509095035 22 360 3.2 4.8 0.00 0.03 0.03 93 1011.5
20260509094920 22 360 1.6 4.8 0.00 0.03 0.03 93 1011.6
20260509094820 22 87 1.6 4.8 0.00 0.03 0.03 93 1011.5
20260509094720 22 360 1.6 4.8 0.00 0.03 0.03 93 1011.5
20260509094619 22 360 1.6 4.8 0.00 0.03 0.03 93 1011.4
20260509094519 22 360 1.6 4.8 0.00 0.03 0.03 92 1011.5
20260509094418 22 360 1.6 4.8 0.00 0.03 0.03 92 1011.5
20260509094317 22 360 1.6 4.8 0.00 0.03 0.03 92 1011.5
20260509094222 22 86 1.6 3.2 0.00 0.03 0.03 92 1011.5
20260509094123 22 86 1.6 3.2 0.03 0.03 0.03 92 1011.6
20260509094043 22 360 1.6 3.2 0.03 0.03 0.03 92 1011.6
20260509093922 22 360 1.6 3.2 0.03 0.03 0.03 92 1011.6
20260509093822 22 360 1.6 3.2 0.03 0.03 0.03 92 1011.6
20260509093722 22 360 1.6 3.2 0.03 0.03 0.03 92 1011.6
20260509093622 22 360 1.6 3.2 0.03 0.03 0.03 92 1011.6
20260509093527 22 360 1.6 3.2 0.03 0.03 0.03 92 1011.6
20260509093427 22 360 1.6 3.2 0.03 0.03 0.03 92 1011.6
20260509093327 22 360 1.6 3.2 0.03 0.03 0.03 92 1011.4
20260509093227 22 360 0.0 1.6 0.03 0.03 0.03 92 1011.5
20260509093128 22 360 0.0 1.6 0.03 0.03 0.03 92 1011.4
20260509093029 22 360 0.0 1.6 0.03 0.03 0.03 92 1011.5
20260509092929 22 360 0.0 1.6 0.03 0.03 0.03 92 1011.6
20260509092854 22 360 0.0 1.6 0.03 0.03 0.03 92 1011.5
20260509092734 22 360 0.0 1.6 0.03 0.03 0.03 92 1011.5
20260509092635 22 360 0.0 1.6 0.03 0.03 0.03 92 1011.5
20260509092516 22 360 0.0 1.6 0.03 0.03 0.03 92 1011.4
20260509092417 22 360 0.0 1.6 0.03 0.03 0.03 92 1011.5
20260509092318 22 360 0.0 1.6 0.03 0.03 0.03 92 1011.4
20260509092222 22 360 0.0 1.6 0.03 0.03 0.03 92 1011.5
20260509092123 22 360 0.0 1.6 0.03 0.03 0.03 92 1011.5
20260509092024 22 360 0.0 1.6 0.03 0.03 0.03 92 1011.5
20260509091925 22 360 0.0 3.2 0.03 0.03 0.03 92 1011.6
20260509091825 22 360 0.0 3.2 0.03 0.03 0.03 92 1011.4
20260509091725 22 360 0.0 3.2 0.03 0.03 0.03 92 1011.4
20260509091625 22 360 0.0 3.2 0.03 0.03 0.03 92 1011.5
20260509091530 22 360 1.6 3.2 0.03 0.03 0.03 92 1011.5
20260509091430 22 360 1.6 3.2 0.03 0.03 0.03 92 1011.3
20260509091330 22 360 1.6 3.2 0.03 0.03 0.03 92 1011.4
20260509091231 22 360 1.6 3.2 0.03 0.03 0.03 92 1011.4
20260509091132 22 360 1.6 4.8 0.03 0.03 0.03 92 1011.4
20260509091034 22 360 1.6 4.8 0.03 0.03 0.03 92 1011.4
20260509090937 22 360 1.6 4.8 0.03 0.03 0.03 92 1011.4
20260509090818 22 360 1.6 4.8 0.03 0.03 0.03 92 1011.3
20260509090718 22 360 1.6 4.8 0.03 0.03 0.03 92 1011.4
20260509090618 22 360 1.6 4.8 0.03 0.03 0.03 92 1011.4
20260509090519 22 360 1.6 4.8 0.03 0.03 0.03 92 1011.4
20260509090420 22 80 1.6 4.8 0.03 0.03 0.03 92 1011.4
20260509090320 22 80 1.6 4.8 0.03 0.03 0.03 92 1011.4
20260509090224 22 81 1.6 4.8 0.03 0.03 0.03 92 1011.4
20260509090126 22 360 1.6 4.8 0.03 0.03 0.03 92 1011.4
20260509090025 22 77 0.0 3.2 0.03 0.03 0.03 92 1011.4
20260509085926 22 360 0.0 3.2 0.03 0.03 0.03 92 1011.4
20260509085847 22 360 0.0 1.6 0.03 0.03 0.03 92 1011.4
20260509085725 22 360 0.0 1.6 0.03 0.03 0.03 92 1011.5
20260509085625 22 360 1.6 1.6 0.03 0.03 0.03 92 1011.5
20260509085530 22 360 1.6 1.6 0.03 0.03 0.03 92 1011.5
20260509085431 22 360 1.6 1.6 0.03 0.03 0.03 92 1011.4
20260509085332 22 360 0.0 1.6 0.03 0.03 0.03 92 1011.4
20260509085231 22 360 0.0 1.6 0.03 0.03 0.03 92 1011.4
20260509085132 22 360 0.0 3.2 0.03 0.03 0.03 92 1011.4
20260509085033 22 360 0.0 3.2 0.03 0.03 0.03 92 1011.4
20260509084938 22 360 0.0 4.8 0.03 0.03 0.03 92 1011.4
20260509084838 22 360 0.0 4.8 0.03 0.03 0.03 92 1011.6
20260509084717 22 360 0.0 4.8 0.03 0.03 0.03 92 1011.5
20260509084617 22 360 1.6 4.8 0.03 0.03 0.03 92 1011.5
20260509084518 22 360 1.6 4.8 0.03 0.03 0.03 92 1011.5
20260509084419 22 360 1.6 6.4 0.03 0.03 0.03 92 1011.5
20260509084319 22 360 1.6 6.4 0.03 0.03 0.03 92 1011.4
20260509084225 22 360 3.2 6.4 0.03 0.03 0.03 92 1011.5
20260509084125 22 360 3.2 6.4 0.00 0.00 0.00 92 1011.6
20260509084026 22 77 3.2 6.4 0.00 0.00 0.00 92 1011.6
20260509083946 22 360 3.2 6.4 0.00 0.00 0.00 92 1011.5
20260509083826 22 360 3.2 6.4 0.00 0.00 0.00 92 1011.5
20260509083727 22 360 3.2 6.4 0.00 0.00 0.00 92 1011.6
20260509083647 22 74 3.2 6.4 0.00 0.00 0.00 92 1011.5
20260509083527 22 74 3.2 4.8 0.00 0.00 0.00 92 1011.5
20260509083431 22 360 3.2 4.8 0.00 0.00 0.00 92 1011.6
20260509083332 22 360 1.6 4.8 0.00 0.00 0.00 92 1011.7
20260509083233 22 68 1.6 4.8 0.00 0.00 0.00 92 1011.8
20260509083134 22 360 1.6 4.8 0.00 0.00 0.00 92 1011.8
20260509083033 22 360 1.6 4.8 0.00 0.00 0.00 92 1011.8
20260509082954 22 360 1.6 0.0 0.00 0.00 0.00 92 1011.8
20260509082853 22 29 1.6 0.0 0.00 0.00 0.00 91 1011.8
20260509082815 22 360 1.6 4.8 0.00 0.00 0.00 91 1011.8
20260509082241 22 30 1.6 4.8 0.00 0.00 0.00 91 1011.8
20260509082133 22 30 1.6 4.8 0.00 0.00 0.00 91 1011.8
20260509082034 22 30 1.6 4.8 0.00 0.00 0.00 91 1011.8
20260509081933 22 30 1.6 4.8 0.00 0.00 0.00 91 1011.8
20260509081854 22 360 1.6 4.8 0.00 0.00 0.00 91 1011.8
20260509081734 22 26 1.6 6.4 0.00 0.00 0.00 91 1011.8
20260509081618 22 360 1.6 6.4 0.00 0.00 0.00 91 1011.8
20260509081518 22 360 1.6 6.4 0.00 0.00 0.00 91 1011.9
20260509081439 22 30 1.6 6.4 0.00 0.00 0.00 91 1012.0
20260509081318 22 360 1.6 6.4 0.00 0.00 0.00 91 1012.1
20260509081238 22 360 1.6 6.4 0.00 0.00 0.00 91 1012.0
20260509081138 22 360 1.6 6.4 0.00 0.00 0.00 91 1012.0
20260509081017 22 360 1.6 6.4 0.00 0.00 0.00 91 1011.9
20260509080938 22 360 3.2 6.4 0.00 0.00 0.00 91 1011.9
20260509080837 22 360 3.2 6.4 0.00 0.00 0.00 91 1011.9
20260509080720 22 30 3.2 6.4 0.00 0.00 0.00 91 1011.9
20260509080621 22 27 3.2 6.4 0.00 0.00 0.00 91 1011.8
20260509080522 22 29 3.2 6.4 0.00 0.00 0.00 91 1011.8
20260509080442 22 360 3.2 6.4 0.00 0.00 0.00 91 1011.8
20260509080322 22 360 3.2 6.4 0.00 0.00 0.00 91 1011.7
20260509080224 22 360 3.2 6.4 0.00 0.00 0.00 91 1011.6
20260509080145 22 360 3.2 6.4 0.00 0.00 0.00 91 1011.6
20260509080027 22 360 3.2 6.4 0.00 0.00 0.00 91 1011.6
20260509075928 22 360 3.2 6.4 0.00 0.00 0.00 91 1011.7
20260509075848 22 360 3.2 6.4 0.00 0.00 0.00 91 1011.6
20260509075729 22 360 3.2 6.4 0.00 0.00 0.00 91 1011.6
20260509075629 22 360 1.6 6.4 0.00 0.00 0.00 91 1011.5
20260509075528 22 360 1.6 6.4 0.00 0.00 0.00 91 1011.6
20260509075429 22 360 1.6 4.8 0.00 0.00 0.00 91 1011.6
20260509075351 22 360 1.6 4.8 0.00 0.00 0.00 91 1011.6
20260509075235 22 360 1.6 4.8 0.00 0.00 0.00 91 1011.6
20260509075135 22 360 1.6 4.8 0.00 0.00 0.00 91 1011.7
20260509075035 22 360 1.6 4.8 0.00 0.00 0.00 91 1011.6
20260509074935 22 360 1.6 4.8 0.00 0.00 0.00 91 1011.7
20260509074855 22 360 1.6 4.8 0.00 0.00 0.00 91 1011.6
20260509074733 22 360 1.6 4.8 0.00 0.00 0.00 91 1011.6
20260509074633 22 360 1.6 4.8 0.00 0.00 0.00 91 1011.6
20260509074518 22 360 1.6 4.8 0.00 0.00 0.00 91 1011.6
20260509074419 22 360 1.6 4.8 0.00 0.00 0.00 91 1011.5
20260509074320 22 360 1.6 4.8 0.00 0.00 0.00 91 1011.5
20260509074221 22 360 1.6 4.8 0.00 0.00 0.00 91 1011.6
20260509074123 22 360 1.6 4.8 0.00 0.00 0.00 91 1011.7
20260509074023 22 360 1.6 4.8 0.00 0.00 0.00 91 1011.6
20260509073927 22 360 1.6 4.8 0.00 0.00 0.00 91 1011.6
20260509073828 22 360 1.6 4.8 0.00 0.00 0.00 91 1011.6
20260509073730 22 360 1.6 4.8 0.00 0.00 0.00 91 1011.7
20260509073632 22 360 1.6 4.8 0.00 0.00 0.00 91 1011.6
20260509073533 22 360 1.6 4.8 0.00 0.00 0.00 91 1011.6
20260509073434 22 360 1.6 4.8 0.00 0.00 0.00 91 1011.6
20260509073334 22 360 1.6 4.8 0.00 0.00 0.00 91 1011.6
20260509073219 22 360 1.6 4.8 0.00 0.00 0.00 91 1011.4
20260509073119 22 360 1.6 4.8 0.00 0.00 0.00 91 1011.5
20260509073040 22 360 1.6 4.8 0.00 0.00 0.00 91 1011.5
20260509072920 22 360 1.6 4.8 0.00 0.00 0.00 91 1011.6
20260509072822 22 360 3.2 4.8 0.00 0.00 0.00 91 1011.6
20260509072743 22 360 3.2 6.4 0.00 0.00 0.00 91 1011.7
20260509072623 22 360 3.2 6.4 0.00 0.00 0.00 91 1011.7
20260509072527 22 360 3.2 6.4 0.00 0.00 0.00 91 1011.7
20260509072448 22 360 3.2 6.4 0.00 0.00 0.00 91 1011.7
20260509072328 22 360 4.8 6.4 0.00 0.00 0.00 91 1011.7
20260509072249 22 360 4.8 8.0 0.00 0.00 0.00 91 1011.8
20260509072130 22 360 4.8 8.0 0.00 0.00 0.00 91 1011.7
20260509072030 22 360 4.8 8.0 0.00 0.00 0.00 91 1011.8
20260509071931 22 360 4.8 8.0 0.00 0.00 0.00 91 1011.7
20260509071833 22 360 4.8 8.0 0.00 0.00 0.00 91 1011.8
20260509071757 22 360 4.8 8.0 0.00 0.00 0.00 91 1011.7
20260509071656 22 360 4.8 8.0 0.00 0.00 0.00 90 1011.8
20260509071516 22 360 4.8 8.0 0.00 0.00 0.00 90 1011.7
20260509071418 22 360 4.8 8.0 0.00 0.00 0.00 90 1011.8
20260509071318 22 360 4.8 8.0 0.00 0.00 0.00 90 1011.7
20260509071219 22 360 4.8 8.0 0.00 0.00 0.00 90 1011.7
20260509071119 22 360 4.8 8.0 0.00 0.00 0.00 90 1011.8
20260509071040 22 360 4.8 8.0 0.00 0.00 0.00 90 1011.8
20260509070922 22 360 4.8 9.7 0.00 0.00 0.00 90 1011.8
20260509070843 22 360 4.8 9.7 0.00 0.00 0.00 90 1011.7
20260509070722 22 360 4.8 9.7 0.00 0.00 0.00 90 1011.8
20260509070622 22 360 4.8 9.7 0.00 0.00 0.00 90 1011.8
20260509070543 22 360 4.8 9.7 0.00 0.00 0.00 90 1011.8
20260509070424 22 360 4.8 9.7 0.00 0.00 0.00 90 1011.8
20260509070325 22 360 4.8 9.7 0.00 0.00 0.00 90 1011.8
20260509070226 22 360 4.8 9.7 0.00 0.00 0.00 90 1011.8
20260509070131 22 360 4.8 12.9 0.00 0.00 0.00 90 1011.9
20260509070029 22 360 4.8 16.1 0.00 0.00 0.00 90 1011.8
20260509065929 22 360 4.8 16.1 0.00 0.00 0.00 90 1011.7
20260509065827 22 360 4.8 16.1 0.00 0.00 0.00 90 1011.8
20260509065729 22 360 4.8 16.1 0.00 0.00 0.00 90 1011.8
20260509065629 22 360 4.8 16.1 0.00 0.00 0.00 90 1011.8
20260509065550 22 360 4.8 16.1 0.00 0.00 0.00 90 1011.9
20260509065430 22 360 6.4 16.1 0.00 0.00 0.00 90 1011.9
20260509065316 22 360 8.0 16.1 0.00 0.00 0.00 90 1011.8
20260509065216 22 360 8.0 16.1 0.00 0.00 0.00 90 1011.9
20260509065138 22 360 6.4 16.1 0.00 0.00 0.00 90 1011.9
20260509065018 22 360 6.4 14.5 0.00 0.00 0.00 90 1011.9
20260509064917 22 360 6.4 14.5 0.00 0.00 0.00 90 1011.9
20260509064818 22 360 6.4 14.5 0.00 0.00 0.00 90 1011.9
20260509064719 22 360 6.4 14.5 0.00 0.00 0.00 90 1011.9
20260509064624 22 360 6.4 14.5 0.00 0.00 0.00 90 1011.8
20260509064524 22 360 6.4 12.9 0.00 0.00 0.00 90 1011.9
20260509064423 22 360 6.4 12.9 0.00 0.00 0.00 90 1011.8
20260509064344 22 360 6.4 12.9 0.00 0.00 0.00 90 1011.7
20260509064243 22 360 6.4 12.9 0.00 0.00 0.00 90 1011.7
20260509064142 22 360 6.4 12.9 0.00 0.00 0.00 90 1011.7
20260509064016 22 360 6.4 12.9 0.00 0.00 0.00 90 1011.6
20260509063917 22 360 6.4 14.5 0.00 0.00 0.00 90 1011.6
20260509063816 22 360 4.8 14.5 0.00 0.00 0.00 90 1011.6
20260509063721 22 360 6.4 14.5 0.00 0.00 0.00 90 1011.5
20260509063620 22 360 6.4 14.5 0.00 0.00 0.00 90 1011.4
20260509063521 22 360 6.4 16.1 0.00 0.00 0.00 90 1011.4
20260509063442 22 360 6.4 16.1 0.00 0.00 0.00 90 1011.4
20260509063321 22 360 8.0 16.1 0.00 0.00 0.00 90 1011.5
20260509063241 22 360 8.0 20.9 0.00 0.00 0.00 90 1011.5
20260509063122 22 360 9.7 20.9 0.00 0.00 0.00 90 1011.5
20260509063022 22 360 9.7 20.9 0.00 0.00 0.00 90 1011.5
20260509062927 22 360 9.7 20.9 0.00 0.00 0.00 90 1011.5
20260509062828 22 360 11.3 20.9 0.00 0.00 0.00 90 1011.5
20260509062749 22 360 11.3 20.9 0.00 0.00 0.00 90 1011.4
20260509062626 22 360 11.3 20.9 0.00 0.00 0.00 90 1011.5
20260509062526 22 360 11.3 20.9 0.00 0.00 0.00 90 1011.4
20260509062426 22 360 11.3 19.3 0.00 0.00 0.00 89 1011.5
20260509062327 22 360 11.3 19.3 0.00 0.00 0.00 89 1011.5
20260509062230 22 360 9.7 19.3 0.00 0.00 0.00 89 1011.5
20260509062131 22 360 9.7 19.3 0.00 0.00 0.00 89 1011.5
20260509062033 22 360 8.0 16.1 0.00 0.00 0.00 89 1011.6
20260509061933 22 360 9.7 16.1 0.00 0.00 0.00 89 1011.5
20260509061833 22 360 8.0 19.3 0.00 0.00 0.00 89 1011.6
20260509061733 22 360 8.0 19.3 0.00 0.00 0.00 89 1011.6
20260509061618 22 360 8.0 20.9 0.00 0.00 0.00 89 1011.5
20260509061518 22 360 8.0 20.9 0.00 0.00 0.00 89 1011.6
20260509061419 22 360 8.0 20.9 0.00 0.00 0.00 89 1011.6
20260509061319 22 360 8.0 20.9 0.00 0.00 0.00 89 1011.4
20260509061220 22 360 8.0 20.9 0.00 0.00 0.00 89 1011.4
20260509061120 22 360 8.0 20.9 0.00 0.00 0.00 89 1011.3
20260509061020 22 360 8.0 20.9 0.00 0.00 0.00 89 1011.3
20260509060925 22 360 8.0 20.9 0.00 0.00 0.00 89 1011.3
20260509060826 22 360 9.7 20.9 0.00 0.00 0.00 89 1011.3
20260509060727 22 360 9.7 20.9 0.00 0.00 0.00 89 1011.4
20260509060627 22 360 9.7 20.9 0.00 0.00 0.00 89 1011.4
20260509060527 22 360 9.7 20.9 0.00 0.00 0.00 89 1011.3
20260509060428 22 360 11.3 24.1 0.00 0.00 0.00 89 1011.4
20260509060332 22 360 9.7 24.1 0.00 0.00 0.00 89 1011.4
20260509060233 22 360 9.7 24.1 0.00 0.00 0.00 89 1011.4
20260509060134 22 360 8.0 24.1 0.00 0.00 0.00 89 1011.4
20260509060054 22 360 9.7 24.1 0.00 0.00 0.00 89 1011.4
20260509055934 22 360 9.7 24.1 0.00 0.00 0.00 89 1011.4
20260509055834 22 360 11.3 24.1 0.00 0.00 0.00 89 1011.4
20260509055735 22 360 11.3 24.1 0.00 0.00 0.00 89 1011.4
20260509055619 22 360 12.9 24.1 0.00 0.00 0.00 89 1011.4
20260509055519 22 360 14.5 24.1 0.00 0.00 0.00 89 1011.4
20260509055420 22 360 14.5 24.1 0.00 0.00 0.00 89 1011.3
20260509055321 22 360 14.5 24.1 0.00 0.00 0.00 89 1011.3
20260509055220 22 360 14.5 29.0 0.00 0.00 0.00 89 1011.4
20260509055141 22 360 12.9 29.0 0.00 0.00 0.00 89 1011.4
20260509055041 22 360 12.9 29.0 0.00 0.00 0.00 89 1011.3
20260509054924 22 360 11.3 29.0 0.00 0.00 0.00 88 1011.3
20260509054825 22 360 11.3 29.0 0.00 0.00 0.00 88 1011.2
20260509054725 22 360 11.3 29.0 0.00 0.00 0.00 88 1011.3
20260509054624 22 360 11.3 29.0 0.00 0.00 0.00 88 1011.3
20260509054525 22 360 12.9 29.0 0.00 0.00 0.00 88 1011.3
20260509054426 22 360 12.9 29.0 0.00 0.00 0.00 88 1011.3
20260509054346 22 360 11.3 29.0 0.00 0.00 0.00 88 1011.2
20260509054226 22 360 9.7 29.0 0.00 0.00 0.00 88 1011.3
20260509054151 22 360 11.3 29.0 0.00 0.00 0.00 88 1011.3
20260509054050 22 360 9.7 20.9 0.00 0.00 0.00 88 1011.3
20260509053929 22 360 9.7 20.9 0.00 0.00 0.00 88 1011.3
20260509053828 22 360 9.7 20.9 0.00 0.00 0.00 88 1011.2
20260509053729 22 360 9.7 20.9 0.00 0.00 0.00 88 1011.3
20260509053629 22 360 9.7 20.9 0.00 0.00 0.00 88 1011.3
20260509053529 22 360 9.7 20.9 0.00 0.00 0.00 88 1011.3
20260509053449 22 360 8.0 20.9 0.00 0.00 0.00 88 1011.3
20260509053327 22 360 9.7 25.7 0.00 0.00 0.00 88 1011.3
20260509053252 22 360 8.0 25.7 0.00 0.00 0.00 88 1011.3
20260509053131 22 360 9.7 25.7 0.00 0.00 0.00 88 1011.3
20260509053031 22 360 9.7 25.7 0.00 0.00 0.00 88 1011.3
20260509052932 22 360 11.3 25.7 0.00 0.00 0.00 88 1011.3
20260509052833 22 360 11.3 25.7 0.00 0.00 0.00 88 1011.3
20260509052735 22 360 11.3 25.7 0.00 0.00 0.00 88 1011.2
20260509052618 22 360 11.3 25.7 0.00 0.00 0.00 88 1011.3
20260509052518 22 360 11.3 25.7 0.00 0.00 0.00 88 1011.2
20260509052419 22 360 11.3 25.7 0.00 0.00 0.00 88 1011.2
20260509052320 22 360 9.7 25.7 0.00 0.00 0.00 88 1011.2
20260509052220 22 360 9.7 25.7 0.00 0.00 0.00 88 1011.3
20260509052121 22 360 9.7 20.9 0.00 0.00 0.00 88 1011.2
20260509052021 22 360 8.0 20.9 0.00 0.00 0.00 88 1011.3
20260509051926 22 360 8.0 20.9 0.00 0.00 0.00 88 1011.2
20260509051826 22 360 8.0 20.9 0.00 0.00 0.00 88 1011.3
20260509051727 22 360 9.7 20.9 0.00 0.00 0.00 88 1011.3
20260509051627 22 360 9.7 20.9 0.00 0.00 0.00 88 1011.3
20260509051525 22 360 11.3 20.9 0.00 0.00 0.00 88 1011.2
20260509051426 22 360 11.3 20.9 0.00 0.00 0.00 88 1011.2
20260509051326 22 360 11.3 20.9 0.00 0.00 0.00 88 1011.2
20260509051251 22 360 12.9 20.9 0.00 0.00 0.00 88 1011.2
20260509051150 22 360 12.9 20.9 0.00 0.00 0.00 88 1011.0
20260509051030 22 360 12.9 20.9 0.00 0.00 0.00 88 1010.9
20260509050930 22 360 12.9 20.9 0.00 0.00 0.00 88 1010.9
20260509050831 22 360 14.5 22.5 0.00 0.00 0.00 88 1010.9
20260509050731 22 360 14.5 22.5 0.00 0.00 0.00 88 1010.9
20260509050652 22 360 14.5 22.5 0.00 0.00 0.00 88 1010.9
20260509050531 22 360 14.5 22.5 0.00 0.00 0.00 88 1010.8
20260509050435 22 360 14.5 22.5 0.00 0.00 0.00 88 1010.9
20260509050316 22 360 12.9 22.5 0.00 0.00 0.00 88 1010.8
20260509050217 22 360 12.9 22.5 0.00 0.00 0.00 88 1011.0
20260509050117 22 360 11.3 22.5 0.00 0.00 0.00 88 1010.9
20260509050038 22 360 11.3 22.5 0.00 0.00 0.00 88 1010.9
20260509045952 22 360 9.7 19.3 0.00 0.00 0.00 88 1011.0
20260509045831 22 360 9.7 19.3 0.00 0.00 0.00 88 1010.9
20260509045736 22 360 9.7 19.3 0.00 0.00 0.00 88 1010.9
20260509045635 22 360 9.7 19.3 0.00 0.00 0.00 88 1011.0
20260509045555 22 360 9.7 19.3 0.00 0.00 0.00 88 1011.0
20260509045455 22 360 9.7 19.3 0.00 0.00 0.00 88 1011.0
20260509045334 22 360 11.3 19.3 0.00 0.00 0.00 88 1011.0
20260509045234 22 360 11.3 19.3 0.00 0.00 0.00 88 1011.0
20260509045134 22 360 12.9 20.9 0.00 0.00 0.00 88 1011.0
20260509045056 22 360 12.9 20.9 0.00 0.00 0.00 88 1011.0
20260509044918 22 360 12.9 20.9 0.00 0.00 0.00 88 1010.8
20260509044819 22 360 14.5 20.9 0.00 0.00 0.00 88 1010.9
20260509044718 22 360 12.9 20.9 0.00 0.00 0.00 88 1010.8
20260509044619 22 360 12.9 20.9 0.00 0.00 0.00 88 1010.9
20260509044519 22 360 12.9 20.9 0.00 0.00 0.00 88 1010.8
20260509044438 22 360 11.3 20.9 0.00 0.00 0.00 88 1010.9
20260509044338 22 360 11.3 20.9 0.00 0.00 0.00 88 1010.9
20260509044217 22 360 11.3 19.3 0.00 0.00 0.00 88 1010.8
20260509044122 22 360 11.3 19.3 0.00 0.00 0.00 88 1010.8
20260509044022 22 360 11.3 19.3 0.00 0.00 0.00 88 1010.9
20260509043921 22 360 11.3 22.5 0.00 0.00 0.00 88 1010.9
20260509043822 22 360 11.3 22.5 0.00 0.00 0.00 88 1011.0
20260509043743 22 360 11.3 22.5 0.00 0.00 0.00 88 1011.0
20260509043623 22 360 11.3 22.5 0.00 0.00 0.00 88 1011.0
20260509043523 22 360 12.9 22.5 0.00 0.00 0.00 88 1011.0
20260509043423 22 360 12.9 22.5 0.00 0.00 0.00 88 1011.0
20260509043349 22 360 12.9 22.5 0.00 0.00 0.00 88 1011.0
20260509043228 22 360 12.9 22.5 0.00 0.00 0.00 88 1011.0
20260509043129 22 360 12.9 22.5 0.00 0.00 0.00 88 1010.9
20260509043029 22 360 12.9 22.5 0.00 0.00 0.00 88 1010.9
20260509042930 22 360 12.9 22.5 0.00 0.00 0.00 88 1010.9
20260509042831 22 360 12.9 22.5 0.00 0.00 0.00 88 1010.9
20260509042732 22 360 12.9 22.5 0.00 0.00 0.00 88 1010.9
20260509042616 22 360 12.9 22.5 0.00 0.00 0.00 88 1010.9
20260509042517 22 360 11.3 22.5 0.00 0.00 0.00 88 1011.0
20260509042417 22 360 11.3 22.5 0.00 0.00 0.00 88 1011.0
20260509042317 22 360 11.3 22.5 0.00 0.00 0.00 87 1011.0
20260509042218 22 360 11.3 22.5 0.00 0.00 0.00 87 1011.1
20260509042119 22 360 11.3 17.7 0.00 0.00 0.00 87 1011.1
20260509042022 22 360 11.3 17.7 0.00 0.00 0.00 87 1011.1
20260509041923 22 360 11.3 17.7 0.00 0.00 0.00 88 1011.1
20260509041823 22 360 11.3 17.7 0.00 0.00 0.00 88 1011.1
20260509041723 22 360 11.3 17.7 0.00 0.00 0.00 88 1011.2
20260509041623 22 360 9.7 17.7 0.00 0.00 0.00 87 1011.1
20260509041523 22 360 11.3 17.7 0.00 0.00 0.00 87 1011.1
20260509041422 22 360 9.7 17.7 0.00 0.00 0.00 87 1011.1
20260509041323 22 360 9.7 17.7 0.00 0.00 0.00 87 1011.1
20260509041248 22 360 9.7 17.7 0.00 0.00 0.00 87 1011.1
20260509041146 22 360 9.7 17.7 0.00 0.00 0.00 87 1011.1
20260509041026 22 360 9.7 17.7 0.00 0.00 0.00 87 1011.2
20260509040928 22 360 9.7 17.7 0.00 0.00 0.00 87 1011.2
20260509040828 22 360 9.7 17.7 0.00 0.00 0.00 87 1011.2
20260509040729 22 360 8.0 16.1 0.00 0.00 0.00 87 1011.2
20260509040627 22 360 8.0 16.1 0.00 0.00 0.00 87 1011.2
20260509040547 22 360 8.0 16.1 0.00 0.00 0.00 87 1011.2
20260509040431 22 360 8.0 16.1 0.00 0.00 0.00 87 1011.2
20260509040331 22 360 8.0 14.5 0.00 0.00 0.00 87 1011.3
20260509040231 22 360 6.4 12.9 0.00 0.00 0.00 87 1011.3
20260509040132 22 360 6.4 12.9 0.00 0.00 0.00 87 1011.3
20260509040033 22 360 8.0 12.9 0.00 0.00 0.00 87 1011.3
20260509035934 22 360 6.4 12.9 0.00 0.00 0.00 87 1011.3
20260509035819 22 360 6.4 12.9 0.00 0.00 0.00 87 1011.3
20260509035719 22 360 6.4 12.9 0.00 0.00 0.00 87 1011.4
20260509035618 22 360 6.4 12.9 0.00 0.00 0.00 87 1011.4
20260509035519 22 360 6.4 12.9 0.00 0.00 0.00 87 1011.3
20260509035419 22 360 6.4 12.9 0.00 0.00 0.00 87 1011.4
20260509035320 22 360 4.8 9.7 0.00 0.00 0.00 86 1011.4
20260509035241 22 360 4.8 9.7 0.00 0.00 0.00 86 1011.4
20260509035120 22 360 4.8 8.0 0.00 0.00 0.00 86 1011.4
20260509035025 22 360 4.8 9.7 0.00 0.00 0.00 86 1011.3
20260509034925 22 360 4.8 9.7 0.00 0.00 0.00 86 1011.3
20260509034846 22 360 4.8 9.7 0.00 0.00 0.00 86 1011.3
20260509034746 22 360 4.8 9.7 0.00 0.00 0.00 86 1011.3
20260509034624 22 360 4.8 9.7 0.00 0.00 0.00 86 1011.4
20260509034525 22 360 4.8 9.7 0.00 0.00 0.00 86 1011.3
20260509034426 22 360 4.8 9.7 0.00 0.00 0.00 86 1011.3
20260509034330 22 360 4.8 9.7 0.00 0.00 0.00 86 1011.3
20260509034230 22 360 3.2 9.7 0.00 0.00 0.00 86 1011.3
20260509034131 22 360 3.2 6.4 0.00 0.00 0.00 86 1011.3
20260509034030 22 360 3.2 6.4 0.00 0.00 0.00 86 1011.3
20260509033931 22 360 3.2 6.4 0.00 0.00 0.00 86 1011.2
20260509033831 22 360 3.2 6.4 0.00 0.00 0.00 86 1011.2
20260509033732 22 360 3.2 8.0 0.00 0.00 0.00 86 1011.3
20260509033616 22 360 3.2 8.0 0.00 0.00 0.00 86 1011.3
20260509033517 22 360 3.2 8.0 0.00 0.00 0.00 86 1011.3
20260509033418 22 360 3.2 8.0 0.00 0.00 0.00 86 1011.4
20260509033318 22 360 3.2 8.0 0.00 0.00 0.00 86 1011.3
20260509033220 22 360 3.2 8.0 0.00 0.00 0.00 86 1011.3
20260509033140 22 360 3.2 8.0 0.00 0.00 0.00 86 1011.4
20260509033021 22 360 3.2 8.0 0.00 0.00 0.00 86 1011.4
20260509032923 22 360 3.2 8.0 0.00 0.00 0.00 86 1011.4
20260509032825 22 360 3.2 8.0 0.00 0.00 0.00 86 1011.3
20260509032725 22 360 3.2 8.0 0.00 0.00 0.00 86 1011.3
20260509032626 22 360 3.2 8.0 0.00 0.00 0.00 86 1011.2
20260509032526 22 360 3.2 8.0 0.00 0.00 0.00 86 1011.2
20260509032427 22 360 3.2 6.4 0.00 0.00 0.00 86 1011.2
20260509032327 23 360 3.2 6.4 0.00 0.00 0.00 85 1011.3
20260509032231 23 360 3.2 6.4 0.00 0.00 0.00 85 1011.3
20260509032132 22 360 3.2 6.4 0.00 0.00 0.00 85 1011.2
20260509032035 23 360 3.2 6.4 0.00 0.00 0.00 85 1011.3
20260509031933 23 360 3.2 6.4 0.00 0.00 0.00 85 1011.2
20260509031835 23 360 3.2 6.4 0.00 0.00 0.00 85 1011.3
20260509031735 23 360 3.2 6.4 0.00 0.00 0.00 85 1011.3
20260509031655 23 360 4.8 8.0 0.00 0.00 0.00 85 1011.2
20260509031519 23 360 4.8 9.7 0.00 0.00 0.00 85 1011.3
20260509031419 23 360 4.8 9.7 0.00 0.00 0.00 85 1011.3
20260509031319 23 360 4.8 9.7 0.00 0.00 0.00 85 1011.2
20260509031220 23 360 4.8 9.7 0.00 0.00 0.00 85 1011.2
20260509031120 23 360 6.4 9.7 0.00 0.00 0.00 85 1011.2
20260509031020 23 360 6.4 9.7 0.00 0.00 0.00 85 1011.2
20260509030941 23 360 6.4 9.7 0.00 0.00 0.00 85 1011.1
20260509030824 23 360 6.4 9.7 0.00 0.00 0.00 85 1011.2
20260509030725 23 360 6.4 9.7 0.00 0.00 0.00 85 1011.2
20260509030624 23 360 6.4 9.7 0.00 0.00 0.00 85 1011.1
20260509030524 23 360 6.4 9.7 0.00 0.00 0.00 85 1011.1
20260509030424 23 360 6.4 9.7 0.00 0.00 0.00 85 1011.1
20260509030325 23 360 6.4 9.7 0.00 0.00 0.00 85 1011.0
20260509030226 23 360 6.4 9.7 0.00 0.00 0.00 85 1011.0
20260509030150 23 360 6.4 9.7 0.00 0.00 0.00 85 1011.0
20260509030110 23 360 6.4 9.7 0.00 0.00 0.00 85 1010.9
20260509025827 23 360 6.4 9.7 0.00 0.00 0.00 84 1010.8
20260509025729 23 360 6.4 9.7 0.00 0.00 0.00 84 1011.0
20260509025629 23 360 6.4 9.7 0.00 0.00 0.00 84 1010.9
20260509025550 23 360 6.4 9.7 0.00 0.00 0.00 84 1010.8
20260509025428 23 360 6.4 9.7 0.00 0.00 0.00 84 1010.8
20260509025329 23 360 6.4 9.7 0.00 0.00 0.00 84 1010.8
20260509025232 23 360 6.4 9.7 0.00 0.00 0.00 84 1010.8
20260509025132 23 360 4.8 9.7 0.00 0.00 0.00 84 1010.8
20260509025053 23 360 4.8 8.0 0.00 0.00 0.00 84 1010.7
20260509024953 23 360 4.8 8.0 0.00 0.00 0.00 84 1010.8
20260509024832 23 360 3.2 8.0 0.00 0.00 0.00 84 1010.8
20260509024753 23 360 3.2 8.0 0.00 0.00 0.00 84 1010.8
20260509024633 23 360 3.2 8.0 0.00 0.00 0.00 84 1010.9
20260509024517 23 360 4.8 8.0 0.00 0.00 0.00 84 1010.8
20260509024417 23 360 4.8 8.0 0.00 0.00 0.00 84 1010.7
20260509024338 23 360 4.8 8.0 0.00 0.00 0.00 84 1010.7
20260509024217 23 360 4.8 8.0 0.00 0.00 0.00 84 1010.8
20260509024117 23 360 4.8 8.0 0.00 0.00 0.00 84 1010.7
20260509024018 23 360 4.8 8.0 0.00 0.00 0.00 83 1010.7
20260509023918 23 360 4.8 8.0 0.00 0.00 0.00 83 1010.7
20260509023823 23 360 4.8 8.0 0.00 0.00 0.00 83 1010.7
20260509023723 23 360 4.8 8.0 0.00 0.00 0.00 83 1010.6
20260509023622 23 360 4.8 8.0 0.00 0.00 0.00 83 1010.7
20260509023520 23 360 4.8 8.0 0.00 0.00 0.00 83 1010.8
20260509023421 23 360 4.8 8.0 0.00 0.00 0.00 83 1010.7
20260509023321 23 360 4.8 8.0 0.00 0.00 0.00 83 1010.8
20260509023242 23 360 4.8 8.0 0.00 0.00 0.00 83 1010.8
20260509023121 23 360 4.8 8.0 0.00 0.00 0.00 83 1010.8
20260509023025 23 360 4.8 8.0 0.00 0.00 0.00 83 1010.8
20260509022946 23 360 3.2 8.0 0.00 0.00 0.00 83 1010.8
20260509022847 23 360 3.2 8.0 0.00 0.00 0.00 83 1010.8
20260509022745 23 360 3.2 6.4 0.00 0.00 0.00 83 1010.7
20260509022645 23 360 3.2 4.8 0.00 0.00 0.00 83 1010.7
20260509022524 23 360 1.6 4.8 0.00 0.00 0.00 83 1010.8
20260509022424 23 360 1.6 4.8 0.00 0.00 0.00 83 1010.8
20260509022325 23 360 1.6 4.8 0.00 0.00 0.00 83 1010.8
20260509022224 23 360 1.6 4.8 0.00 0.00 0.00 83 1010.7
20260509022149 23 360 1.6 4.8 0.00 0.00 0.00 83 1010.7
20260509022028 23 360 1.6 4.8 0.00 0.00 0.00 83 1010.8
20260509021929 23 360 1.6 4.8 0.00 0.00 0.00 83 1010.8
20260509021828 23 360 3.2 4.8 0.00 0.00 0.00 83 1010.8
20260509021729 23 360 3.2 9.7 0.00 0.00 0.00 83 1010.7
20260509021628 23 360 3.2 9.7 0.00 0.00 0.00 83 1010.8
20260509021529 23 360 3.2 9.7 0.00 0.00 0.00 83 1010.7
20260509021432 23 360 3.2 9.7 0.00 0.00 0.00 83 1010.6
20260509021333 23 360 3.2 9.7 0.00 0.00 0.00 82 1010.7
20260509021234 23 360 3.2 9.7 0.00 0.00 0.00 82 1010.5
20260509021135 23 360 3.2 9.7 0.00 0.00 0.00 82 1010.5
20260509021035 23 360 3.2 17.7 0.00 0.00 0.00 82 1010.5
20260509020935 23 360 4.8 17.7 0.00 0.00 0.00 82 1010.5
20260509020819 23 360 4.8 17.7 0.00 0.00 0.00 82 1010.4
20260509020740 23 360 4.8 17.7 0.00 0.00 0.00 82 1010.4
20260509020619 23 360 6.4 17.7 0.00 0.00 0.00 82 1010.4
20260509020520 23 360 6.4 17.7 0.00 0.00 0.00 82 1010.4
20260509020440 23 360 6.4 22.5 0.00 0.00 0.00 82 1010.3
20260509020319 23 360 6.4 22.5 0.00 0.00 0.00 82 1010.3
20260509020219 23 360 8.0 22.5 0.00 0.00 0.00 82 1010.3
20260509020119 23 360 8.0 22.5 0.00 0.00 0.00 82 1010.2
20260509020019 23 360 9.7 22.5 0.00 0.00 0.00 82 1010.2
20260509015923 23 360 9.7 22.5 0.00 0.00 0.00 82 1010.2
20260509015827 23 360 11.3 22.5 0.00 0.00 0.00 82 1010.2
20260509015725 23 360 11.3 22.5 0.00 0.00 0.00 82 1010.2
20260509015646 23 360 11.3 22.5 0.00 0.00 0.00 82 1010.1
20260509015525 23 360 11.3 20.9 0.00 0.00 0.00 82 1010.1
20260509015425 23 360 12.9 20.9 0.00 0.00 0.00 82 1010.1
20260509015346 23 360 12.9 20.9 0.00 0.00 0.00 82 1010.0
20260509015230 23 360 11.3 20.9 0.00 0.00 0.00 82 1010.0
20260509015131 24 360 11.3 20.9 0.00 0.00 0.00 81 1010.0
20260509015030 24 360 11.3 19.3 0.00 0.00 0.00 81 1010.0
20260509014932 24 360 9.7 19.3 0.00 0.00 0.00 81 1009.9
20260509014832 24 360 9.7 19.3 0.00 0.00 0.00 81 1010.0
20260509014753 24 360 9.7 19.3 0.00 0.00 0.00 81 1010.0
20260509014631 24 360 9.7 19.3 0.00 0.00 0.00 81 1010.0
20260509014530 24 360 9.7 19.3 0.00 0.00 0.00 81 1009.9
20260509014434 24 360 9.7 19.3 0.00 0.00 0.00 81 1010.0
20260509014335 24 360 9.7 19.3 0.00 0.00 0.00 81 1010.0
20260509014235 24 360 9.7 19.3 0.00 0.00 0.00 81 1010.0
20260509014155 24 360 9.7 16.1 0.00 0.00 0.00 81 1009.9
20260509014054 24 360 8.0 16.1 0.00 0.00 0.00 81 1009.9
20260509013933 24 360 8.0 16.1 0.00 0.00 0.00 81 1010.0
20260509013833 24 360 8.0 16.1 0.00 0.00 0.00 81 1009.9
20260509013732 24 360 8.0 16.1 0.00 0.00 0.00 81 1010.0
20260509013631 24 360 8.0 16.1 0.00 0.00 0.00 81 1010.0
20260509013535 24 360 8.0 16.1 0.00 0.00 0.00 81 1010.0
20260509013434 24 360 8.0 17.7 0.00 0.00 0.00 81 1010.0
20260509013333 24 360 8.0 17.7 0.00 0.00 0.00 81 1009.9
20260509013234 24 360 6.4 17.7 0.00 0.00 0.00 81 1010.0
20260509013135 24 360 6.4 17.7 0.00 0.00 0.00 81 1010.0
20260509013055 24 360 8.0 17.7 0.00 0.00 0.00 81 1010.1
20260509012935 24 360 8.0 17.7 0.00 0.00 0.00 81 1010.0
20260509012836 24 360 8.0 17.7 0.00 0.00 0.00 80 1010.0
20260509012718 24 360 8.0 14.5 0.00 0.00 0.00 80 1010.1
20260509012619 24 360 8.0 14.5 0.00 0.00 0.00 80 1010.0
20260509012519 24 360 8.0 14.5 0.00 0.00 0.00 80 1010.1
20260509012419 24 360 8.0 14.5 0.00 0.00 0.00 80 1010.0
20260509012320 24 360 8.0 14.5 0.00 0.00 0.00 80 1010.1
20260509012218 24 360 8.0 14.5 0.00 0.00 0.00 80 1010.1
20260509012119 24 360 6.4 14.5 0.00 0.00 0.00 80 1010.0
20260509012023 24 360 6.4 14.5 0.00 0.00 0.00 80 1010.1
20260509011924 24 360 6.4 14.5 0.00 0.00 0.00 80 1010.0
20260509011824 24 360 4.8 14.5 0.00 0.00 0.00 80 1010.1
20260509011724 24 360 6.4 14.5 0.00 0.00 0.00 80 1010.1
20260509011625 24 360 6.4 14.5 0.00 0.00 0.00 80 1010.1
20260509011525 24 360 6.4 16.1 0.00 0.00 0.00 80 1010.0
20260509011430 24 360 6.4 16.1 0.00 0.00 0.00 80 1010.0
20260509011330 24 360 6.4 16.1 0.00 0.00 0.00 80 1010.0
20260509011231 24 360 6.4 16.1 0.00 0.00 0.00 80 1010.0
20260509011132 24 360 8.0 16.1 0.00 0.00 0.00 80 1010.0
20260509011032 24 360 8.0 16.1 0.00 0.00 0.00 80 1010.1
20260509010933 24 360 8.0 16.1 0.00 0.00 0.00 80 1010.0
20260509010818 24 360 8.0 16.1 0.00 0.00 0.00 80 1010.0
20260509010719 24 360 8.0 16.1 0.00 0.00 0.00 80 1009.9
20260509010619 24 360 6.4 16.1 0.00 0.00 0.00 80 1010.0
20260509010520 24 360 6.4 16.1 0.00 0.00 0.00 80 1010.0
20260509010440 25 360 6.4 14.5 0.00 0.00 0.00 80 1010.1
20260509010320 25 360 6.4 14.5 0.00 0.00 0.00 80 1010.0
20260509010220 25 360 4.8 12.9 0.00 0.00 0.00 80 1010.0
20260509010125 25 360 4.8 19.3 0.00 0.00 0.00 80 1010.0
20260509010025 25 360 6.4 19.3 0.00 0.00 0.00 80 1010.0
20260509005924 25 360 6.4 19.3 0.00 0.00 0.00 80 1009.9
20260509005825 25 360 8.0 19.3 0.00 0.00 0.00 80 1010.0
20260509005746 24 360 9.7 19.3 0.00 0.00 0.00 80 1009.9
20260509005625 25 360 9.7 19.3 0.00 0.00 0.00 80 1009.8
20260509005525 25 360 9.7 19.3 0.00 0.00 0.00 80 1009.9
20260509005425 25 360 9.7 19.3 0.00 0.00 0.00 80 1009.9
20260509005330 25 360 9.7 19.3 0.00 0.00 0.00 80 1009.9
20260509005231 25 360 9.7 19.3 0.00 0.00 0.00 79 1009.9
20260509005129 25 360 9.7 19.3 0.00 0.00 0.00 79 1009.9
20260509005029 25 360 8.0 19.3 0.00 0.00 0.00 79 1009.9
20260509004930 25 360 8.0 19.3 0.00 0.00 0.00 79 1009.8
20260509004831 25 360 8.0 19.3 0.00 0.00 0.00 79 1009.8
20260509004752 25 360 9.7 19.3 0.00 0.00 0.00 79 1009.8
20260509004616 25 360 9.7 19.3 0.00 0.00 0.00 79 1009.9
20260509004517 25 360 9.7 19.3 0.00 0.00 0.00 79 1009.8
20260509004417 25 360 11.3 19.3 0.00 0.00 0.00 79 1009.8
20260509004318 25 360 11.3 19.3 0.00 0.00 0.00 79 1009.8
20260509004219 25 360 12.9 19.3 0.00 0.00 0.00 79 1009.8
20260509004120 25 360 11.3 19.3 0.00 0.00 0.00 79 1009.8
20260509004040 25 360 11.3 19.3 0.00 0.00 0.00 79 1009.8
20260509003924 25 360 11.3 19.3 0.00 0.00 0.00 79 1009.8
20260509003823 25 360 9.7 17.7 0.00 0.00 0.00 79 1009.9
20260509003724 25 360 9.7 17.7 0.00 0.00 0.00 79 1009.8
20260509003624 25 360 11.3 17.7 0.00 0.00 0.00 79 1009.8
20260509003545 25 360 11.3 17.7 0.00 0.00 0.00 79 1009.8
20260509003424 25 360 11.3 19.3 0.00 0.00 0.00 79 1009.7
20260509003345 25 360 11.3 19.3 0.00 0.00 0.00 79 1009.8
20260509003243 25 360 11.3 22.5 0.00 0.00 0.00 79 1009.8
20260509003127 25 360 12.9 22.5 0.00 0.00 0.00 79 1009.8
20260509003027 25 360 12.9 22.5 0.00 0.00 0.00 79 1009.8
20260509002928 25 360 12.9 20.9 0.00 0.00 0.00 79 1009.8
20260509002828 25 360 12.9 20.9 0.00 0.00 0.00 79 1009.8
20260509002730 25 360 14.5 20.9 0.00 0.00 0.00 79 1009.8
20260509002629 25 360 12.9 20.9 0.00 0.00 0.00 79 1009.8
20260509002535 25 360 12.9 20.9 0.00 0.00 0.00 79 1009.9
20260509002455 25 360 12.9 20.9 0.00 0.00 0.00 79 1009.9
20260509002334 25 360 11.3 17.7 0.00 0.00 0.00 78 1009.9
20260509002235 25 360 11.3 17.7 0.00 0.00 0.00 78 1009.9
20260509002156 25 360 11.3 17.7 0.00 0.00 0.00 78 1009.8
20260509002056 25 360 11.3 17.7 0.00 0.00 0.00 78 1009.9
20260509001934 25 360 9.7 14.5 0.00 0.00 0.00 78 1009.9
20260509001835 25 360 9.7 16.1 0.00 0.00 0.00 78 1009.9
20260509001720 25 360 9.7 16.1 0.00 0.00 0.00 78 1010.0
20260509001620 25 360 8.0 16.1 0.00 0.00 0.00 78 1009.9
20260509001522 25 360 8.0 16.1 0.00 0.00 0.00 78 1009.9
20260509001421 25 360 8.0 16.1 0.00 0.00 0.00 78 1009.9
20260509001322 25 360 8.0 16.1 0.00 0.00 0.00 79 1010.0
20260509001223 25 360 9.7 24.1 0.00 0.00 0.00 78 1009.9
20260509001127 25 360 9.7 24.1 0.00 0.00 0.00 78 1010.0
20260509001028 25 360 9.7 24.1 0.00 0.00 0.00 78 1010.0
20260509000948 25 360 11.3 24.1 0.00 0.00 0.00 78 1009.9
20260509000828 25 360 11.3 24.1 0.00 0.00 0.00 78 1009.9
20260509000729 25 360 12.9 24.1 0.00 0.00 0.00 78 1010.0
20260509000630 25 360 12.9 24.1 0.00 0.00 0.00 78 1010.0
20260509000549 25 360 12.9 24.1 0.00 0.00 0.00 78 1010.0
20260509000429 25 360 12.9 24.1 0.00 0.00 0.00 78 1009.9
20260509000333 25 360 11.3 24.1 0.00 0.00 0.00 78 1010.0
20260509000234 25 360 11.3 24.1 0.00 0.00 0.00 77 1010.0
20260509000135 25 360 11.3 22.5 0.00 0.00 0.00 77 1010.0
20260509000016 25 360 11.3 22.5 0.00 0.00 0.00 77 1010.0
20260508235917 25 360 14.5 22.5 0.00 0.00 0.00 77 1009.9
20260508235819 25 360 14.5 22.5 0.00 0.00 0.00 77 1009.9
20260508235742 25 360 14.5 22.5 0.00 0.00 0.00 77 1010.0
20260508235621 25 360 14.5 22.5 0.00 0.00 0.00 77 1009.9
20260508235521 25 360 12.9 20.9 0.00 0.00 0.00 77 1009.9
20260508235442 25 360 11.3 20.9 0.00 0.00 0.00 77 1009.8
20260508235341 25 360 9.7 19.3 0.00 0.00 0.00 77 1009.9
20260508235221 25 360 9.7 19.3 0.00 0.00 0.00 77 1009.9
20260508235122 25 360 9.7 19.3 0.00 0.00 0.00 77 1009.9
20260508235021 25 360 9.7 19.3 0.00 0.00 0.00 77 1009.9
20260508234926 25 360 11.3 19.3 0.00 0.00 0.00 77 1009.9
20260508234847 25 360 11.3 19.3 0.00 0.00 0.00 77 1009.9
20260508234727 25 360 11.3 19.3 0.00 0.00 0.00 77 1009.9
20260508234627 25 360 11.3 19.3 0.00 0.00 0.00 76 1009.9
20260508234527 25 360 11.3 19.3 0.00 0.00 0.00 76 1009.9
20260508234427 25 360 11.3 19.3 0.00 0.00 0.00 76 1009.9
20260508234327 25 360 11.3 19.3 0.00 0.00 0.00 76 1009.8
20260508234232 25 360 9.7 19.3 0.00 0.00 0.00 76 1009.8
20260508234133 25 360 11.3 19.3 0.00 0.00 0.00 76 1009.9
20260508234033 25 360 9.7 19.3 0.00 0.00 0.00 76 1009.9
20260508233934 25 360 9.7 19.3 0.00 0.00 0.00 76 1009.8
20260508233835 25 360 9.7 20.9 0.00 0.00 0.00 76 1009.9
20260508233734 25 360 11.3 24.1 0.00 0.00 0.00 76 1009.8
20260508233619 25 360 12.9 24.1 0.00 0.00 0.00 76 1009.9
20260508233520 25 360 11.3 24.1 0.00 0.00 0.00 76 1009.9
20260508233441 25 360 12.9 24.1 0.00 0.00 0.00 76 1009.9
20260508233320 25 360 12.9 24.1 0.00 0.00 0.00 76 1009.9
20260508233220 25 360 12.9 24.1 0.00 0.00 0.00 76 1009.9
20260508233121 25 360 12.9 24.1 0.00 0.00 0.00 76 1009.9
20260508233022 25 360 12.9 24.1 0.00 0.00 0.00 76 1009.9
20260508232927 25 360 12.9 24.1 0.00 0.00 0.00 76 1009.9
20260508232828 25 360 14.5 24.1 0.00 0.00 0.00 76 1009.9
20260508232747 25 360 14.5 24.1 0.00 0.00 0.00 76 1009.9
20260508232626 25 360 12.9 24.1 0.00 0.00 0.00 76 1009.8
20260508232526 25 360 12.9 24.1 0.00 0.00 0.00 76 1009.8
20260508232426 25 360 12.9 20.9 0.00 0.00 0.00 76 1009.8
20260508232326 25 360 12.9 24.1 0.00 0.00 0.00 76 1009.7
20260508232231 25 360 14.5 24.1 0.00 0.00 0.00 76 1009.7
20260508232152 25 360 12.9 24.1 0.00 0.00 0.00 76 1009.8
20260508232031 25 360 12.9 24.1 0.00 0.00 0.00 76 1009.8
20260508231931 25 360 12.9 24.1 0.00 0.00 0.00 76 1009.8
20260508231831 25 360 12.9 24.1 0.00 0.00 0.00 76 1009.8
20260508231730 25 360 14.5 24.1 0.00 0.00 0.00 76 1009.7
20260508231630 25 360 14.5 24.1 0.00 0.00 0.00 76 1009.8
20260508231531 25 360 14.5 24.1 0.00 0.00 0.00 76 1009.8
20260508231435 25 360 12.9 24.1 0.00 0.00 0.00 76 1009.8
20260508231335 25 360 11.3 20.9 0.00 0.00 0.00 76 1009.8
20260508231256 25 360 11.3 20.9 0.00 0.00 0.00 76 1009.8
20260508231134 25 360 11.3 20.9 0.00 0.00 0.00 76 1009.8
20260508231035 25 360 12.9 20.9 0.00 0.00 0.00 76 1009.8
20260508230916 25 360 12.9 24.1 0.00 0.00 0.00 75 1009.8
20260508230818 25 360 12.9 24.1 0.00 0.00 0.00 75 1009.8
20260508230722 25 360 12.9 24.1 0.00 0.00 0.00 75 1009.9
20260508230621 25 360 12.9 24.1 0.00 0.00 0.00 75 1010.0
20260508230541 25 360 14.5 24.1 0.00 0.00 0.00 75 1009.9
20260508230422 25 360 14.5 24.1 0.00 0.00 0.00 75 1010.0
20260508230321 25 360 14.5 24.1 0.00 0.00 0.00 75 1009.8
20260508230222 25 360 14.5 24.1 0.00 0.00 0.00 75 1009.9
20260508230123 25 360 14.5 24.1 0.00 0.00 0.00 75 1009.9
20260508230023 25 360 14.5 22.5 0.00 0.00 0.00 75 1009.9
20260508225927 25 360 14.5 22.5 0.00 0.00 0.00 75 1009.9
20260508225829 25 360 14.5 22.5 0.00 0.00 0.00 75 1010.0
20260508225727 25 360 14.5 22.5 0.00 0.00 0.00 75 1009.9
20260508225628 25 360 14.5 22.5 0.00 0.00 0.00 75 1009.9
20260508225528 25 360 14.5 22.5 0.00 0.00 0.00 75 1009.9
20260508225428 25 360 12.9 22.5 0.00 0.00 0.00 75 1009.9
20260508225332 25 360 12.9 20.9 0.00 0.00 0.00 75 1010.0
20260508225232 25 360 12.9 22.5 0.00 0.00 0.00 75 1009.9